ECMWFFLT1_850_temp_057.txt.gz
Temp
24 24 24 24 24 24 25 25 25 25 24 24 24 23 23 22 22 21 21 21 21 21 21 22 22 23 23 23 23 22 22 22 22 22 22 22 22 22 22 22 22 23 23 23 23 23 23 23 23 23 23 22 22 22 22 22 22 21 21 21 20 20 20
25 25 25 24 25 24 25 25 25 25 25 24 24 23 23 23 22 22 21 21 21 21 21 21 22 23 23 23 23 23 22 22 22 22 22 22 22 22 23 22 23 23 23 23 23 23 23 23 23 23 23 23 22 22 22 22 22 22 21 21 21 21 21
25 25 25 25 25 25 25 25 25 25 25 24 24 24 23 23 23 22 22 21 21 21 21 21 22 23 23 23 23 23 23 22 23 22 22 22 22 23 23 23 23 23 23 23 23 23 23 23 23 23 23 23 23 22 22 22 22 22 22 22 22 21 21
25 25 25 25 25 25 25 25 25 25 25 24 24 24 24 23 23 23 22 22 21 21 21 21 21 22 23 23 23 23 23 23 23 23 23 23 23 23 23 23 23 23 23 23 23 23 23 23 23 23 23 23 23 23 22 22 22 22 22 22 22 22 22
26 26 26 26 25 25 25 25 25 25 25 24 24 24 24 23 23 23 22 22 22 21 21 21 21 22 22 23 23 23 24 23 23 23 23 23 23 23 23 23 23 23 23 23 23 23 23 23 23 23 23 23 23 23 23 22 22 22 22 22 22 22 22
26 26 26 26 26 25 25 25 25 25 25 25 24 24 24 24 23 23 23 22 22 22 21 21 21 22 22 22 22 23 23 24 23 23 23 23 23 23 23 23 23 23 23 23 23 23 23 23 23 22 22 22 23 23 23 23 23 22 22 22 22 22 22
27 27 27 26 26 26 26 25 25 25 25 24 24 24 24 24 23 23 23 23 22 22 21 21 21 21 22 22 22 22 23 23 24 24 23 23 23 23 23 23 23 23 23 23 23 23 23 23 23 22 22 22 22 23 23 23 23 23 22 22 22 22 22
27 27 27 27 27 26 26 25 25 25 25 24 24 24 24 24 24 23 23 23 23 22 22 21 21 22 22 22 22 22 22 23 24 24 24 24 23 23 23 23 23 23 23 23 23 24 23 23 23 22 22 22 22 22 23 23 23 23 23 23 23 23 22
28 28 27 27 27 26 26 26 25 25 25 24 24 24 24 24 24 24 23 23 23 22 22 22 22 22 22 22 22 22 22 22 23 24 24 24 24 24 24 24 24 24 23 23 24 24 24 24 23 23 22 22 22 22 23 23 23 23 23 23 23 23 23
28 28 28 28 27 27 26 26 26 25 25 25 25 24 24 24 24 24 24 23 23 23 23 22 22 22 22 22 22 22 21 22 22 23 23 24 24 24 24 24 24 24 24 24 24 23 23 24 23 23 22 22 22 22 23 23 23 23 23 23 23 23 23
29 28 28 28 27 27 27 26 26 25 25 25 25 24 24 24 24 24 24 24 23 23 23 22 22 22 22 22 21 21 21 21 22 22 23 24 24 24 24 24 24 24 24 24 23 23 23 23 23 23 22 22 22 23 23 23 23 23 23 23 23 23 23
28 28 28 28 28 27 27 26 26 25 25 25 25 25 24 24 24 24 24 24 24 23 23 22 22 22 21 21 21 21 21 21 21 22 23 23 24 24 24 23 23 23 23 23 23 23 23 23 23 22 22 22 23 23 23 23 23 23 24 23 23 23 23
26 26 27 27 28 28 27 27 26 26 26 26 25 25 25 25 25 24 24 24 24 23 23 23 22 22 21 21 21 21 21 21 21 22 23 23 24 24 23 23 23 23 23 23 23 23 22 22 22 22 23 23 23 23 23 23 23 23 23 23 23 23 23
23 24 25 26 25 27 27 27 27 27 26 26 26 25 25 25 25 25 25 24 24 24 23 23 23 22 22 21 21 21 21 21 21 22 22 23 23 24 23 23 23 23 23 23 23 22 22 22 22 22 22 23 22 22 22 22 23 23 23 23 23 23 23
22 22 23 23 23 25 26 26 26 26 26 26 26 25 25 25 25 25 25 24 24 24 24 23 23 22 22 22 22 21 21 21 21 21 22 22 23 23 23 23 23 23 23 22 23 22 22 22 22 22 22 22 22 22 22 22 22 23 23 23 23 23 23
21 20 20 20 21 22 22 23 24 25 25 25 25 25 25 25 25 25 25 24 24 24 24 23 23 23 22 22 22 22 21 21 21 21 21 22 22 23 23 23 23 22 22 22 22 22 22 22 22 22 22 22 22 22 22 22 22 22 23 23 23 23 23
19 19 19 19 19 21 21 21 22 24 24 24 25 25 25 24 24 24 24 24 24 24 24 23 23 23 23 23 22 22 22 21 21 21 21 22 22 23 23 23 23 22 22 22 22 22 22 22 22 21 21 22 22 22 22 22 22 22 23 23 23 23 23
18 18 18 18 18 20 21 21 21 21 22 23 24 24 25 25 24 24 24 24 24 24 23 23 23 23 23 23 22 22 22 21 21 21 21 21 22 23 23 23 23 22 22 22 22 22 22 22 22 21 21 22 22 22 22 22 22 22 23 23 23 23 23
17 17 17 17 17 18 19 20 21 20 20 21 22 23 24 25 25 24 24 24 24 24 23 23 22 22 23 23 23 22 22 22 22 21 21 22 22 22 23 23 22 22 22 22 22 22 22 22 22 22 21 21 22 22 22 22 22 22 23 23 23 23 23
16 16 16 16 16 16 17 18 20 20 20 21 22 22 22 24 25 25 25 25 25 25 24 23 22 22 22 23 23 23 23 22 22 22 22 22 22 22 22 22 22 23 22 22 22 22 22 22 22 22 22 22 22 22 22 22 22 22 23 23 23 23 23
15 15 15 15 15 15 15 16 18 20 20 20 22 22 22 23 24 24 25 25 25 25 25 25 24 23 23 23 23 23 23 23 23 22 22 22 22 22 22 22 22 22 22 22 22 22 22 22 22 22 22 22 22 22 22 22 22 22 23 23 23 23 23
14 14 14 14 14 14 15 15 17 18 19 20 21 22 22 22 22 22 23 24 25 25 25 25 25 25 24 24 24 24 24 23 23 23 22 22 22 22 22 22 22 22 22 22 22 22 22 22 22 22 22 22 22 22 22 22 22 22 22 23 23 23 23
14 13 13 13 13 13 14 15 17 18 19 20 21 21 21 22 22 22 22 23 24 25 25 25 25 25 25 24 24 24 24 24 24 23 23 23 22 22 22 22 22 22 22 22 22 22 22 22 22 22 22 22 22 22 22 22 22 22 22 22 23 23 23
13 13 13 13 13 13 14 15 16 18 19 20 21 21 21 22 23 23 23 23 23 24 25 25 25 25 25 25 24 25 25 24 24 24 23 23 23 23 22 22 22 22 22 22 22 22 22 22 22 22 22 22 22 22 22 22 22 22 22 22 22 22 23
12 12 12 13 13 13 13 14 15 17 18 20 21 21 21 21 22 23 24 23 23 23 24 25 26 25 25 25 25 25 25 25 24 24 24 24 23 23 23 23 22 22 22 22 22 22 22 22 22 22 22 22 22 22 22 22 22 22 22 22 22 22 22
11 12 12 13 13 13 13 14 14 16 17 19 20 21 20 20 21 22 23 23 24 23 24 25 26 26 25 26 26 25 25 25 25 24 24 24 24 23 23 23 22 22 22 22 22 22 22 22 22 22 22 22 22 22 22 22 22 22 22 22 22 22 22
11 12 12 12 12 13 13 13 14 15 16 17 19 20 20 20 20 21 22 23 24 24 24 24 25 26 26 26 26 26 25 25 25 25 25 24 24 23 23 23 23 22 22 22 22 22 22 22 22 22 22 22 22 22 22 22 22 22 22 22 22 22 22
11 12 12 12 12 12 13 13 14 14 15 16 18 19 19 19 20 21 21 22 23 24 25 25 25 25 26 26 26 26 25 25 25 25 24 24 24 23 23 23 23 22 22 22 22 22 22 22 22 22 22 22 22 22 22 22 22 22 22 22 22 22 22
11 12 12 12 12 12 12 13 13 14 14 15 16 17 18 18 19 20 21 22 23 24 24 25 25 25 26 26 26 26 25 25 25 24 24 24 24 23 23 23 23 22 22 22 22 22 22 22 22 22 22 22 22 22 22 22 22 22 22 22 22 22 22
11 11 11 12 12 12 12 12 13 14 14 14 15 16 17 17 18 20 21 22 23 23 24 25 25 25 25 26 26 26 26 25 25 24 24 24 24 23 23 23 22 22 22 22 22 22 22 22 22 22 22 22 22 22 22 22 22 22 22 22 22 23 23
11 11 11 11 11 12 12 12 13 14 14 14 14 15 16 17 17 19 21 23 23 23 24 24 25 25 25 26 27 26 26 25 25 25 24 24 24 23 23 23 22 22 22 22 22 22 22 22 22 22 22 22 22 22 22 22 22 22 23 23 23 23 23
10 10 11 11 11 12 12 13 13 14 14 14 14 15 16 17 17 19 21 22 23 23 23 24 25 25 25 26 27 26 26 25 25 25 24 24 23 23 23 22 22 22 22 22 22 22 22 22 22 22 22 22 22 22 22 22 22 22 23 23 23 23 23
10 10 11 11 11 11 12 13 13 14 14 14 14 15 16 17 18 19 20 21 22 23 23 25 26 25 25 26 27 26 26 25 25 24 24 24 23 23 22 22 22 22 22 21 21 22 22 22 22 22 22 22 22 22 22 23 22 22 23 23 23 23 23
10 10 10 11 11 11 11 12 13 13 14 14 14 15 16 17 18 20 20 21 22 22 23 25 26 26 26 27 27 26 26 25 25 24 24 23 23 22 22 22 22 22 22 22 21 22 22 22 22 22 22 22 23 23 23 23 23 23 23 23 23 23 23
9 9 10 11 11 11 11 12 13 13 14 14 14 15 16 16 18 19 20 20 21 21 22 24 26 26 26 27 27 26 26 25 25 24 24 23 23 22 22 22 22 22 22 21 22 22 22 22 22 23 23 23 23 23 23 23 23 23 24 24 24 24 24
9 9 9 10 11 11 11 12 13 13 14 14 14 15 16 16 17 18 18 19 20 21 21 23 25 25 26 26 26 26 25 25 24 24 24 23 23 22 22 22 22 22 21 21 21 22 22 22 23 23 23 23 23 23 23 24 24 24 24 24 24 24 24
9 9 9 10 11 11 11 13 13 13 14 14 13 14 15 16 17 17 18 18 20 20 21 22 23 25 26 26 26 25 25 25 24 24 23 23 23 22 22 22 22 21 21 21 21 21 21 22 22 23 23 23 23 23 24 24 24 24 23 23 23 23 23
9 9 9 10 11 10 11 12 13 13 13 13 12 13 14 15 16 17 17 18 19 20 21 21 22 23 25 25 25 25 25 24 24 23 23 22 22 22 22 22 22 21 21 21 21 21 21 21 21 22 22 22 23 23 23 24 24 23 23 23 23 23 23

ECMWFFLT1_850_temp_060.txt.gz
Temp
23 23 23 23 23 23 24 24 23 23 23 23 22 22 22 22 22 22 22 22 22 22 21 21 21 21 21 22 22 22 22 21 21 21 21 21 21 21 22 22 22 22 22 22 22 22 22 22 22 22 22 21 21 21 21 21 21 21 21 20 20 20 20
23 23 23 23 23 23 24 24 24 23 23 23 23 22 22 22 22 22 22 22 22 22 22 21 21 21 21 22 22 22 22 22 22 21 21 21 21 21 22 22 23 23 23 23 23 23 22 22 22 22 22 22 22 21 21 21 21 21 21 21 21 21 21
24 23 23 23 23 24 24 24 24 23 23 23 23 22 22 22 22 22 22 22 22 22 22 21 21 21 21 22 22 22 22 22 22 22 22 22 22 22 22 22 23 23 23 23 23 23 22 22 22 22 22 22 22 22 22 22 21 21 21 21 21 21 21
24 24 24 24 24 24 24 24 24 23 23 23 23 23 23 22 22 22 22 22 22 22 21 21 21 22 21 21 22 22 22 22 22 22 22 22 22 22 22 22 22 23 23 23 23 23 23 23 22 22 23 23 22 22 22 22 22 21 21 21 21 21 21
24 24 24 24 24 23 23 24 24 24 23 23 23 23 23 23 22 22 22 22 22 22 22 22 21 21 21 21 22 22 23 23 22 22 22 22 23 22 22 22 22 23 23 23 23 23 23 23 23 23 23 23 23 22 22 22 22 22 22 21 21 21 21
24 24 24 24 24 24 24 24 24 24 24 24 23 23 23 23 22 22 22 22 22 22 22 21 21 21 21 21 21 22 23 23 23 22 22 22 22 22 22 22 22 22 23 23 23 23 23 23 23 23 23 23 23 23 22 22 22 22 22 22 22 22 22
25 24 24 24 24 24 24 24 24 24 24 24 24 23 23 23 23 22 22 22 22 22 22 21 21 21 21 21 21 22 22 23 23 23 22 22 22 23 23 23 23 23 23 23 23 23 23 23 23 23 23 23 23 23 23 23 22 22 22 22 22 22 22
25 25 24 24 24 24 24 24 24 24 24 24 24 24 23 23 23 23 22 22 22 22 22 21 21 21 21 21 21 21 22 22 23 23 23 23 23 23 23 23 23 23 23 23 23 23 23 23 23 23 23 23 23 23 23 23 23 22 22 22 22 22 22
25 25 25 25 25 25 25 24 24 24 24 24 24 24 23 23 23 23 23 22 22 22 22 21 21 21 21 21 21 21 21 21 22 23 23 23 23 23 23 23 23 23 23 23 23 23 23 23 23 23 23 23 23 23 23 23 23 22 22 22 22 22 22
26 25 25 25 25 25 25 24 24 24 24 24 24 24 24 23 23 23 23 22 22 22 22 21 21 21 21 21 21 21 21 21 21 21 22 23 23 23 23 23 23 23 23 23 23 23 23 23 23 23 23 23 23 23 23 23 23 23 22 22 23 23 23
25 25 25 25 25 25 25 24 24 24 24 24 24 24 24 23 23 23 23 23 22 22 22 22 21 21 21 21 21 21 21 21 21 21 21 22 23 24 23 23 23 23 23 23 23 23 23 23 23 23 23 23 23 23 23 23 23 23 23 23 23 23 23
21 23 24 25 25 25 25 25 24 24 24 24 24 24 24 24 24 23 23 23 23 22 22 22 21 21 21 21 21 21 21 21 21 21 21 22 23 24 24 23 23 23 23 23 23 23 23 23 23 23 23 23 23 23 23 23 23 23 23 23 23 23 23
18 19 21 23 24 24 24 24 24 24 24 24 24 24 24 24 24 23 23 23 23 23 22 22 22 21 21 21 21 21 21 21 21 21 21 21 22 23 23 23 23 23 23 24 24 24 24 24 24 24 24 24 24 24 24 23 23 23 23 23 23 23 23
17 17 18 19 21 21 22 23 23 24 24 24 24 24 24 24 24 24 24 23 23 23 22 22 22 22 21 21 21 21 21 21 21 22 21 21 21 22 22 23 23 23 23 23 23 24 24 24 24 24 24 24 24 24 24 23 23 23 23 23 22 22 22
16 16 16 16 17 18 19 20 21 22 22 23 23 23 23 23 23 23 23 23 23 23 23 22 22 22 22 21 21 21 21 21 21 21 21 21 21 21 22 22 23 23 23 23 23 24 24 24 24 24 24 24 24 24 24 23 23 23 23 23 23 22 22
15 15 15 15 15 16 17 17 18 19 21 22 22 23 23 23 23 23 23 23 23 23 23 23 22 22 22 22 22 22 21 21 21 21 21 21 21 21 21 21 22 22 22 22 23 23 23 24 24 24 24 24 24 24 24 23 23 23 23 23 23 23 22
14 14 14 14 14 15 16 16 17 18 19 20 21 22 22 23 23 23 23 23 23 23 23 23 22 22 22 22 22 21 21 21 21 21 21 21 21 21 21 21 21 21 22 22 22 22 22 23 23 23 24 24 24 24 24 23 23 23 23 23 23 23 22
13 13 13 13 13 14 15 16 16 17 18 18 19 20 21 22 22 22 22 23 23 23 23 23 22 22 22 22 22 22 22 21 21 21 21 21 21 21 21 20 20 21 21 21 21 22 22 22 22 23 23 23 23 23 23 23 23 23 23 23 23 22 22
12 13 13 12 12 13 14 15 15 16 17 17 18 18 19 20 21 22 22 22 22 23 23 23 23 23 22 22 22 22 22 22 22 21 21 21 21 21 21 20 20 20 21 21 21 21 21 21 22 22 22 23 23 23 23 23 23 23 23 23 23 23 22
12 12 12 12 12 13 14 15 15 16 16 17 17 18 18 19 19 21 21 22 22 22 23 23 23 23 23 22 22 22 22 21 21 22 22 21 21 21 21 21 21 20 20 20 21 21 21 21 21 22 22 22 22 22 23 23 23 23 23 23 23 23 22
11 11 12 12 13 13 13 14 15 15 16 17 17 17 18 19 20 20 21 21 22 22 22 23 23 23 23 23 23 23 22 22 22 22 22 22 21 21 21 21 21 21 20 20 20 20 21 21 21 21 22 22 22 22 22 23 23 23 23 24 23 23 22
11 11 12 12 12 13 13 14 14 14 15 16 15 16 18 20 20 20 21 21 21 22 22 22 23 23 23 23 23 23 23 23 23 22 22 22 21 21 21 21 21 21 21 20 20 20 20 21 21 21 21 22 22 22 22 23 23 23 23 23 23 23 22
11 11 12 12 12 13 13 14 14 14 15 16 16 16 18 19 20 21 21 21 21 21 21 22 22 23 23 23 23 23 23 23 23 23 22 22 22 22 22 22 22 22 21 21 20 20 20 21 21 21 21 21 21 21 22 22 23 23 23 23 23 22 22
10 11 12 12 13 13 13 14 14 14 15 16 17 17 17 19 20 21 20 21 21 21 21 21 22 22 23 23 23 24 24 23 23 23 23 23 23 23 23 22 22 22 22 21 21 21 21 21 21 21 21 21 21 21 22 22 23 23 23 23 23 22 22
10 10 11 12 12 13 13 13 14 14 15 16 17 17 17 18 20 20 20 20 21 21 22 22 22 22 22 22 23 23 23 24 23 23 23 23 23 23 23 23 22 22 22 22 21 21 21 21 21 21 21 21 21 21 21 22 22 22 22 23 22 22 21
10 10 10 11 12 12 13 13 14 14 15 15 16 17 17 18 19 20 20 20 20 20 21 22 22 22 22 22 22 23 23 24 24 24 23 23 23 23 23 23 23 22 22 22 22 21 21 21 21 21 21 21 21 21 21 21 22 22 22 22 22 22 21
10 10 10 10 11 12 12 13 13 14 14 14 15 16 17 18 18 19 19 20 20 20 20 21 21 22 22 22 22 22 23 23 23 24 24 24 23 23 23 23 23 23 23 23 22 22 21 21 21 21 21 21 21 21 21 21 22 22 22 22 22 22 22
9 10 10 10 10 11 12 13 13 14 14 15 15 15 16 17 18 18 19 19 20 20 20 21 21 22 22 22 22 22 23 23 23 23 24 24 23 23 23 23 23 23 23 23 22 22 21 21 21 21 21 21 21 21 21 22 22 22 22 22 22 22 22
9 9 10 10 10 10 11 12 13 13 14 14 15 15 15 16 17 17 18 19 20 20 20 21 21 21 22 23 23 23 23 23 23 23 24 24 24 24 23 23 23 23 23 23 22 22 22 21 21 21 21 21 21 21 22 22 22 22 22 22 22 22 22
9 9 9 9 10 10 10 11 12 13 13 14 15 15 15 15 16 17 18 19 19 19 20 21 21 21 22 22 23 23 24 24 24 23 24 24 24 24 24 23 23 23 23 23 22 22 22 22 21 21 21 21 21 21 22 22 22 22 22 22 22 22 22
8 9 9 9 9 10 10 11 11 12 13 14 14 15 15 15 15 16 17 18 18 19 19 20 21 21 22 22 23 23 24 24 24 24 24 24 24 24 24 24 23 23 23 23 22 22 22 22 22 21 21 21 21 22 22 22 22 22 22 22 22 22 22
8 9 9 9 9 9 10 10 11 12 13 14 14 15 15 15 15 16 16 16 17 17 18 19 20 21 22 22 22 23 23 24 24 24 24 24 24 24 24 24 23 23 22 22 22 22 22 22 22 21 21 21 22 22 22 22 22 22 22 22 22 22 22
7 8 9 9 9 9 9 10 11 11 13 14 14 15 15 16 15 16 16 15 16 16 17 18 18 20 21 22 22 23 23 24 24 24 24 24 24 24 24 23 23 23 23 23 23 23 22 22 22 22 22 22 22 22 22 22 22 22 22 22 22 22 22
7 8 8 9 9 9 9 10 10 11 12 13 14 14 15 15 15 15 16 16 16 16 17 17 18 19 20 21 22 23 23 24 24 25 25 24 24 24 24 23 23 23 23 23 23 23 23 22 22 22 22 22 22 22 22 22 22 22 22 23 23 23 23
6 7 8 9 9 9 9 9 10 10 11 12 13 14 15 15 15 15 15 16 16 16 16 17 17 18 20 21 22 23 24 24 25 25 25 24 24 24 24 24 24 23 23 23 23 23 23 23 23 23 22 22 22 22 22 22 22 23 24 24 25 25 24
6 7 8 9 9 9 9 9 10 10 11 12 13 14 15 15 14 14 15 15 16 16 16 16 17 18 20 21 22 22 23 24 25 25 25 24 24 24 24 23 23 24 23 23 23 23 23 23 24 23 23 22 22 22 22 22 23 24 24 24 24 24 24
6 7 8 8 8 9 9 9 10 10 10 12 13 14 14 14 14 14 14 15 15 16 16 16 17 18 20 21 21 22 23 24 24 24 24 24 24 24 23 23 23 24 23 23 23 23 23 23 23 23 23 22 22 22 22 22 22 22 22 23 23 23 23
6 7 7 8 8 8 9 9 10 10 10 11 13 14 14 14 14 14 15 15 15 16 16 17 17 19 20 21 21 21 22 22 23 23 23 24 24 23 23 24 24 23 23 23 23 23 23 23 23 22 22 22 22 22 22 22 22 22 22 22 22 23 23

ECMWFFLT1_850_temp_063.txt.gz
Temp
23 23 23 23 23 23 23 23 22 22 22 22 22 22 22 21 21 22 22 22 22 21 21 21 21 21 20 21 21 21 21 21 21 21 21 21 21 21 21 21 21 21 21 21 21 22 21 21 21 21 21 21 21 21 21 21 20 20 20 20 20 20 20
23 23 23 23 23 23 23 23 23 23 22 22 22 22 22 21 21 22 22 22 22 22 22 21 21 21 21 21 21 21 21 21 21 21 21 21 21 21 21 21 21 21 21 21 21 22 22 22 21 21 21 21 21 21 21 21 21 21 20 20 20 20 20
23 23 23 23 23 23 23 23 23 23 22 22 22 22 22 22 22 22 22 22 22 22 22 21 21 21 21 21 21 21 21 21 21 21 21 21 21 22 22 21 21 22 21 21 21 22 22 22 22 21 21 21 21 21 21 21 21 21 21 21 21 21 20
23 23 24 23 23 23 23 23 23 23 23 22 22 22 22 22 22 22 22 22 22 22 22 22 21 21 21 21 22 22 22 22 22 21 21 21 22 22 22 22 22 22 22 22 22 22 22 22 22 21 21 21 21 21 21 21 21 21 21 21 21 21 21
24 23 23 23 23 23 23 23 23 23 23 22 22 22 22 22 22 22 22 22 22 22 22 22 22 22 21 21 22 22 22 22 22 22 21 21 21 21 22 22 22 22 22 22 22 22 22 22 22 22 21 21 21 21 21 21 21 21 21 21 21 21 21
24 24 23 23 23 23 23 23 23 23 23 23 23 22 22 22 22 22 22 22 22 22 22 22 22 22 22 21 22 22 22 22 22 22 22 21 21 21 22 22 22 23 23 23 22 22 22 22 22 22 22 22 22 22 22 21 21 21 21 21 21 21 21
23 24 23 23 23 23 23 23 23 23 23 23 23 22 22 22 22 22 21 21 22 22 22 22 22 22 22 22 22 22 22 22 22 22 22 21 21 21 22 22 23 23 23 23 23 23 23 22 22 22 22 22 22 22 22 22 22 22 22 21 21 21 21
21 23 24 23 23 23 23 23 23 23 23 23 23 22 22 22 22 22 21 21 21 21 21 22 22 22 22 22 22 22 22 23 23 22 22 21 21 21 21 22 22 23 23 23 23 23 23 23 23 23 22 22 22 22 22 22 22 22 22 22 22 21 21
18 21 23 23 23 23 23 23 23 23 23 23 23 23 22 22 22 22 22 22 21 21 21 22 22 22 22 22 22 22 22 22 23 22 22 22 21 21 21 21 22 22 23 23 23 23 23 23 23 23 23 22 22 23 23 23 23 23 22 22 22 22 22
16 17 20 22 23 23 23 23 23 23 23 23 23 23 23 22 22 22 22 22 21 21 21 21 22 22 22 22 22 22 21 22 22 22 22 22 22 22 21 21 21 22 22 23 23 23 23 23 23 23 23 23 23 23 23 23 23 23 23 23 23 22 22
15 15 16 18 21 22 22 22 22 22 23 23 23 23 23 23 22 22 22 22 22 21 21 21 21 21 21 21 21 21 21 22 22 22 22 23 23 22 22 21 21 21 22 22 22 23 23 23 23 23 23 23 23 23 23 23 23 23 23 23 23 23 23
15 14 14 15 17 19 20 21 22 22 22 22 22 23 23 23 22 22 22 22 22 22 21 21 21 21 21 21 21 21 21 22 22 22 22 23 23 23 23 22 22 21 21 22 22 22 23 23 23 23 23 23 23 23 23 23 23 23 23 23 23 23 23
14 14 14 14 15 16 17 18 19 20 21 22 22 22 22 22 22 22 22 22 22 22 21 21 21 21 21 21 21 21 22 22 22 22 22 22 22 23 23 23 22 22 22 22 22 22 22 22 23 23 23 23 23 23 23 23 23 23 23 23 23 23 23
13 13 15 15 15 15 15 16 17 18 19 20 21 22 22 22 22 22 22 22 22 21 21 21 21 21 21 21 21 21 22 22 22 22 22 22 22 22 22 23 23 23 22 22 22 22 22 22 23 23 23 23 23 23 23 23 23 23 23 23 23 23 23
13 13 13 14 15 15 15 15 16 16 17 18 20 21 21 22 22 22 22 22 22 22 21 21 21 21 21 21 21 22 22 22 22 22 22 22 22 22 22 22 22 22 22 22 22 22 22 22 22 22 23 23 23 23 23 23 23 23 23 23 23 23 23
12 12 12 12 13 14 15 15 15 16 16 17 18 19 20 21 21 22 22 22 22 22 22 21 21 21 21 21 21 21 22 22 22 22 22 22 22 22 22 22 21 22 22 22 22 22 22 22 22 22 22 23 23 23 23 23 23 23 24 24 24 24 23
11 11 12 12 13 14 15 16 16 16 16 16 17 17 18 19 20 21 22 22 22 22 22 22 22 21 21 21 21 21 21 21 21 22 22 22 22 22 22 22 21 21 21 21 22 22 22 22 22 22 22 23 23 23 23 23 24 24 24 24 24 24 23
10 11 11 12 12 14 15 16 16 16 16 16 17 17 17 18 19 20 21 22 22 22 22 22 22 22 22 22 21 21 21 21 21 21 22 22 22 22 22 22 21 21 21 21 21 21 21 21 22 22 22 22 22 23 23 23 24 24 24 24 24 24 23
10 10 11 11 11 12 14 15 15 15 15 16 17 17 17 17 17 19 20 21 22 22 22 22 22 22 22 22 22 21 21 21 21 21 22 22 22 22 22 21 21 21 21 21 21 21 21 21 21 21 22 22 22 22 23 23 24 23 23 23 24 23 23
10 10 11 10 10 11 13 14 14 15 15 16 16 17 17 17 17 17 18 20 21 22 22 22 22 22 22 22 22 22 22 21 21 21 22 22 22 21 21 21 21 22 21 21 21 21 21 21 21 21 21 21 22 22 23 23 23 23 23 23 23 23 23
10 10 10 10 10 11 12 13 13 14 15 16 16 16 17 17 17 17 17 18 20 21 21 21 22 22 22 22 22 22 22 22 22 22 22 22 22 21 21 21 21 21 21 21 21 21 21 20 20 20 21 21 21 22 22 23 23 23 23 23 23 23 23
9 9 9 10 10 10 11 12 13 13 14 14 15 15 16 17 17 17 17 18 18 19 20 21 21 22 22 22 22 22 22 22 22 22 22 22 22 21 21 21 22 22 21 21 21 21 21 21 20 20 21 21 21 21 22 23 24 23 23 23 23 23 22
9 9 9 10 10 10 11 11 12 13 13 14 14 15 15 16 17 17 17 17 18 18 19 20 20 21 21 21 21 21 22 22 22 22 22 21 21 21 22 22 22 21 21 21 21 21 21 21 21 21 21 21 21 21 22 23 24 24 24 23 23 22 22
9 9 9 9 10 10 11 11 12 12 13 14 14 14 15 15 17 17 17 18 18 18 19 19 19 20 20 21 21 20 20 21 21 21 21 21 21 21 21 21 21 21 21 21 21 21 21 21 21 21 21 21 21 21 22 23 24 24 23 23 23 22 22
9 9 9 9 9 10 11 11 11 12 12 13 14 14 14 15 16 16 17 17 18 19 19 19 19 19 20 20 20 20 20 20 20 20 20 21 21 21 21 21 21 21 21 21 21 21 21 21 21 21 21 21 21 21 21 22 23 23 23 23 23 22 22
9 9 9 9 9 10 10 10 11 12 12 12 13 14 14 15 15 16 16 17 18 19 19 19 19 19 19 20 20 20 20 20 20 20 20 20 21 21 21 21 21 21 21 21 21 21 21 21 21 21 21 21 21 21 21 22 23 23 23 23 23 22 22
9 9 9 9 9 9 10 10 11 11 12 12 12 13 14 15 15 16 16 17 18 19 19 19 19 19 19 19 20 20 20 20 20 20 21 21 21 21 21 21 21 21 21 21 21 21 21 21 21 21 21 22 21 21 21 22 22 23 23 23 23 22 22
9 9 10 10 10 9 9 10 10 11 12 12 12 12 13 14 14 15 16 16 17 18 19 19 19 20 20 20 20 20 20 20 20 20 21 21 21 21 21 21 21 21 21 21 21 21 21 22 22 21 21 22 22 22 21 22 22 22 23 23 23 22 22
8 9 9 10 10 10 9 9 10 11 11 12 12 12 12 13 13 15 15 16 17 17 18 19 20 20 20 20 20 20 20 20 20 20 21 21 21 22 22 22 22 22 22 21 21 21 21 22 22 21 21 21 22 22 22 22 22 22 22 23 23 22 22
7 8 9 9 10 10 9 9 10 10 11 11 11 12 12 12 13 14 15 15 16 17 18 18 19 20 20 20 20 21 21 21 21 21 21 21 21 22 23 22 22 22 22 22 21 21 22 22 22 21 21 21 22 22 22 22 22 22 22 22 23 22 22
7 8 8 9 9 9 9 9 10 10 11 11 11 12 12 12 13 14 14 15 16 17 17 17 18 19 20 20 20 21 21 21 21 21 21 21 21 22 23 23 23 22 22 22 21 21 22 22 22 22 22 22 22 22 22 22 22 22 22 22 22 22 22
7 7 8 8 9 9 9 9 10 10 11 12 12 12 12 13 13 13 14 14 15 16 16 17 17 18 19 20 20 21 21 21 21 22 22 22 22 22 22 23 23 22 22 22 22 22 22 22 22 22 22 22 22 22 22 22 22 22 22 22 22 22 22
7 7 8 8 9 9 9 9 9 10 11 12 12 12 12 13 13 13 13 14 15 15 16 16 16 17 18 19 20 20 21 21 21 21 21 22 22 22 22 23 23 22 22 22 22 22 23 22 22 22 22 22 22 22 22 22 22 23 23 23 23 23 22
6 7 8 9 8 8 8 8 9 9 10 11 12 12 12 12 13 13 13 14 14 15 16 16 16 17 18 19 19 20 21 21 21 21 21 22 22 22 23 23 23 23 23 23 23 23 23 23 23 23 23 23 23 23 22 23 23 23 23 23 23 23 23
6 7 8 9 8 8 8 8 8 9 9 11 12 12 12 12 12 12 13 13 14 14 16 16 17 17 19 19 19 20 20 20 20 20 21 21 22 22 23 23 23 24 24 24 25 25 25 25 24 24 24 24 24 24 23 24 24 24 24 24 24 24 23
5 6 7 8 8 8 8 8 8 8 9 10 11 11 12 12 12 12 12 13 13 14 15 16 16 17 19 20 20 19 20 20 20 20 21 21 22 22 23 23 24 24 24 25 25 25 25 26 26 25 25 25 25 25 24 25 25 25 24 24 24 23 23
5 5 6 8 8 7 8 8 8 8 9 10 11 11 11 12 12 12 12 12 13 14 15 15 16 17 19 20 20 20 19 20 20 20 20 21 22 23 23 23 24 24 24 25 25 25 24 25 25 25 25 24 24 24 24 24 24 24 24 23 23 23 22
5 5 6 7 7 6 7 8 8 8 8 9 10 10 11 11 12 12 12 13 13 13 14 14 15 17 18 20 20 20 20 20 20 20 20 21 22 22 23 24 24 24 24 25 25 24 24 24 24 24 24 24 24 24 24 24 24 23 23 23 23 22 22

ECMWFFLT1_850_temp_069.txt.gz
Temp
21 22 22 22 22 22 22 22 22 21 21 21 21 21 21 21 21 21 22 22 22 22 22 22 21 21 21 21 21 21 21 21 21 21 21 20 20 20 20 20 20 20 20 20 20 20 20 20 20 20 20 20 20 20 20 19 19 19 20 20 19 19 19
18 19 21 21 22 22 22 22 22 22 22 22 21 21 21 21 22 22 22 22 22 22 22 22 22 22 21 21 21 21 21 21 21 21 21 21 21 20 20 20 20 20 20 20 20 20 20 20 20 20 20 20 20 20 20 20 20 19 20 20 20 19 19
17 17 19 20 21 22 22 22 22 22 22 22 22 21 21 22 22 22 22 22 22 22 22 22 22 22 22 21 21 21 21 21 21 21 21 21 21 20 20 20 20 20 20 20 20 20 20 20 20 20 20 20 20 20 20 20 20 20 20 20 20 20 20
16 16 18 19 20 21 21 22 22 22 22 22 22 22 22 22 22 22 22 22 22 22 22 22 22 22 22 22 21 21 21 21 21 21 21 21 21 21 20 20 20 20 20 20 20 20 20 20 20 20 20 21 20 20 20 20 20 20 20 20 20 20 20
15 15 16 18 19 20 21 22 22 22 22 22 22 22 22 22 22 22 22 22 22 22 22 22 22 22 22 22 22 21 21 21 21 21 21 21 21 21 21 20 20 21 21 21 21 20 20 20 20 20 20 21 21 21 20 20 20 20 20 20 20 20 20
15 15 15 16 18 19 21 22 21 21 22 22 22 22 22 21 21 21 21 22 22 22 22 22 22 22 22 22 22 22 22 21 21 21 21 21 21 21 21 21 21 21 21 21 21 21 20 20 20 20 20 20 20 21 21 21 20 20 20 20 21 21 21
14 14 14 15 16 18 20 21 21 22 22 22 22 22 22 21 21 21 21 21 21 21 22 22 22 22 22 22 22 22 22 22 21 21 21 21 21 21 21 21 21 21 21 21 21 21 21 21 21 20 20 20 20 20 21 21 21 20 20 20 21 21 21
13 13 14 14 15 16 18 20 21 21 21 21 21 21 22 22 21 21 21 20 20 21 21 22 22 22 22 22 22 22 22 22 21 21 21 21 21 21 22 21 21 21 21 21 21 21 21 21 21 21 21 20 20 20 20 21 21 21 21 21 21 21 21
13 13 13 13 14 15 17 18 19 20 21 21 21 21 21 21 21 21 20 19 19 19 19 20 20 21 22 22 22 22 22 22 22 22 21 21 21 21 22 22 22 21 21 21 21 21 21 21 21 21 21 21 21 21 21 21 21 21 21 21 21 21 21
12 12 13 13 14 15 16 17 18 19 19 20 20 20 20 20 21 21 21 20 20 19 19 19 19 19 20 21 22 22 22 22 22 22 22 21 21 21 21 21 22 22 22 21 21 22 22 22 22 22 21 21 21 21 21 21 21 21 21 21 21 21 22
12 12 12 13 14 15 16 16 17 17 18 18 19 19 19 19 20 21 21 21 21 20 20 21 20 20 20 21 21 21 21 22 22 22 22 22 21 21 21 21 21 22 22 22 22 22 22 22 22 22 22 22 22 22 22 21 21 21 21 21 22 22 22
12 11 12 13 14 14 15 15 15 16 16 17 18 18 19 19 19 19 20 20 20 20 21 21 21 21 21 21 21 21 21 21 22 22 22 22 22 22 22 21 21 21 22 22 22 22 22 22 22 22 22 22 22 22 22 22 22 22 22 22 22 22 22
12 11 11 12 13 14 15 15 15 15 16 16 17 17 18 18 18 18 19 19 19 19 20 20 20 20 20 20 21 21 21 21 22 22 22 22 22 22 22 22 22 21 21 21 22 22 22 22 22 22 23 23 23 22 22 22 22 22 22 22 22 22 22
12 11 11 12 12 13 14 14 15 15 15 15 16 16 17 17 17 17 17 18 17 18 18 19 19 20 20 20 20 20 21 21 22 22 22 22 22 22 22 22 22 22 21 21 21 22 22 22 22 22 22 23 23 23 23 23 22 22 22 22 22 22 22
12 11 11 11 12 12 12 13 14 14 15 15 16 16 16 17 17 17 17 17 17 17 17 18 18 19 19 20 20 21 21 21 21 22 22 22 22 22 22 22 22 22 22 21 21 21 21 22 22 22 22 22 23 23 23 23 23 23 23 23 23 23 23
11 11 11 11 11 12 12 12 12 13 14 15 15 16 16 16 17 17 17 17 17 17 17 18 18 18 19 19 20 21 21 21 21 22 22 22 22 22 22 22 22 22 22 22 21 21 21 21 21 22 22 22 22 22 22 23 23 23 23 23 23 23 23
11 11 10 10 11 11 12 12 12 12 13 14 15 15 16 16 16 17 17 17 17 17 17 18 18 18 18 19 19 20 20 21 21 21 21 22 22 22 22 22 22 22 22 22 21 21 21 21 21 21 22 22 22 23 23 23 23 23 23 23 23 23 23
10 10 10 10 10 11 11 12 12 12 12 13 13 14 15 15 16 16 17 17 17 17 18 18 18 18 18 18 19 19 20 20 20 21 21 21 21 22 22 22 22 22 22 22 21 21 21 21 21 21 21 22 22 22 23 23 23 23 23 23 23 23 23
10 10 10 10 10 10 11 11 12 12 12 12 12 13 13 14 15 16 16 17 17 17 18 18 18 18 18 18 18 19 20 20 20 20 21 21 21 21 21 21 21 21 22 22 22 21 21 21 21 21 21 21 21 22 22 23 23 23 23 23 23 23 23
9 9 9 9 9 10 11 11 12 12 12 12 12 12 13 14 15 16 16 16 17 17 17 18 18 18 18 18 18 19 19 19 19 20 20 20 21 21 21 21 21 21 21 21 21 21 21 21 21 21 21 21 21 22 22 22 23 23 23 23 23 23 22
8 9 9 9 9 10 10 11 12 12 12 12 12 12 12 13 15 16 16 17 17 17 17 17 18 18 18 18 18 18 19 19 19 19 20 20 20 20 21 21 21 21 21 21 21 21 22 21 21 21 22 22 22 22 22 22 22 23 23 23 23 22 22
8 8 9 9 9 10 10 10 11 12 12 12 12 12 13 13 14 15 17 17 17 17 17 17 17 18 18 18 18 18 19 19 18 18 19 19 20 20 20 20 21 21 21 21 21 21 21 21 21 21 22 22 21 21 22 22 22 22 22 22 22 21 21
8 8 8 9 9 10 10 10 10 11 12 12 12 12 12 13 14 14 16 17 17 17 17 17 17 18 17 17 18 18 18 18 18 18 18 19 19 20 20 20 21 21 21 21 21 21 21 22 21 21 21 21 22 22 22 22 22 22 22 22 21 21 21
8 8 9 9 9 10 10 11 11 11 11 12 12 12 12 13 14 14 15 16 17 17 17 17 18 18 18 18 18 18 18 18 18 18 18 18 18 19 20 20 20 20 20 21 21 21 21 21 21 21 21 21 22 22 22 22 22 22 22 22 21 21 21
8 9 9 9 9 9 10 10 11 11 11 11 12 12 12 13 14 14 15 15 15 17 17 18 18 18 18 18 18 18 18 18 18 18 18 18 18 18 18 19 19 20 20 20 20 21 21 21 21 21 21 21 22 22 22 22 22 22 22 22 21 21 21
8 9 9 9 9 10 10 10 11 11 11 11 12 12 12 12 13 14 15 15 15 15 16 17 18 18 18 18 18 18 18 18 18 18 18 18 18 18 18 18 19 19 19 20 20 20 20 20 20 21 21 21 21 21 22 22 22 22 22 22 21 21 21
9 9 9 9 9 10 10 11 11 11 11 11 12 12 12 12 13 13 14 15 15 15 15 17 18 18 18 18 18 19 19 18 18 18 18 18 18 18 18 19 19 18 19 19 20 20 20 20 20 20 21 21 21 21 21 22 22 22 22 22 22 21 21
9 9 9 9 9 10 10 11 11 11 11 11 12 12 12 12 12 13 14 15 15 14 15 16 18 18 18 18 19 19 19 19 19 18 18 18 18 18 18 18 19 19 19 19 20 20 20 20 20 20 20 21 21 21 21 22 22 22 22 22 22 22 21
8 9 9 10 10 9 9 10 11 11 12 12 12 12 12 12 12 12 12 14 14 14 14 15 17 18 19 18 19 19 19 19 19 18 18 18 18 18 18 18 18 19 19 19 19 20 20 20 21 21 20 21 21 21 22 22 22 22 22 22 22 22 22
7 8 8 9 10 9 9 9 10 11 12 12 12 12 12 12 12 12 12 13 13 14 14 14 15 17 18 18 18 19 19 19 19 18 18 18 18 17 17 17 18 18 19 19 19 19 20 20 20 20 21 21 21 22 22 22 23 23 23 23 22 22 22
7 7 7 8 9 9 9 9 9 11 12 12 12 12 12 12 12 12 12 12 12 13 13 14 14 15 17 18 18 18 19 19 20 19 18 17 17 17 17 17 18 18 19 19 19 19 20 20 20 20 20 21 21 22 22 22 23 23 23 23 23 23 23
6 7 7 7 7 8 8 9 9 10 11 12 12 11 12 12 12 12 12 12 12 12 12 13 13 14 16 17 18 18 19 19 20 20 19 18 17 17 17 17 17 18 19 19 19 20 20 20 19 20 20 20 21 22 22 22 23 23 23 23 23 23 23
6 6 7 7 7 7 7 8 8 9 10 12 12 11 11 12 12 12 12 12 12 12 12 12 13 13 14 15 17 18 18 19 19 20 20 19 18 18 18 17 17 17 18 19 19 19 20 20 20 21 21 21 21 22 22 22 23 24 24 23 23 23 23
6 6 6 7 7 7 7 7 8 8 9 11 12 11 11 11 12 12 12 12 12 12 12 12 12 12 13 14 15 17 18 18 19 20 20 20 19 18 17 16 16 17 18 19 19 19 19 20 20 21 22 22 22 22 22 23 24 24 24 24 24 24 24
6 6 6 6 6 5 6 6 7 8 8 10 11 11 10 11 12 12 12 12 12 12 12 12 12 12 12 13 14 16 17 18 18 19 20 20 19 19 17 16 15 16 18 19 19 19 19 19 20 20 21 22 22 23 23 23 24 25 25 25 24 24 24
6 5 4 4 4 4 4 5 6 7 8 9 10 11 11 11 11 11 11 11 11 11 11 12 12 12 12 12 13 15 16 18 18 18 19 20 20 19 19 18 16 16 16 17 18 18 19 19 19 20 20 20 21 21 22 23 24 24 24 24 24 24 24
5 4 3 3 3 3 4 4 5 6 7 9 9 10 10 10 10 11 11 11 11 11 11 11 11 12 12 12 12 14 15 17 18 18 18 19 20 20 19 19 19 18 18 18 18 19 19 19 19 20 20 20 20 20 21 22 23 23 23 23 23 23 23
4 3 3 3 3 3 3 4 4 4 6 7 8 9 10 10 10 10 10 10 10 10 11 11 11 11 11 11 12 12 14 16 17 17 18 19 19 19 18 18 18 20 20 19 19 18 19 19 19 20 20 21 21 21 21 22 23 23 23 23 23 23 23

ECMWFFLT1_850_temp_072.txt.gz
Temp
23 24 24 23 23 22 22 22 22 22 22 22 22 22 22 21 21 21 21 22 22 22 22 22 22 22 21 21 21 21 21 21 21 21 21 21 20 20 20 20 20 19 19 19 19 19 19 20 19 19 19 20 20 20 20 20 20 19 20 20 19 19 19
22 22 23 23 23 23 23 23 22 22 22 22 22 22 22 22 21 21 21 22 22 22 22 22 22 22 22 22 21 21 21 21 21 21 21 21 21 21 20 20 20 20 20 20 19 19 19 20 20 20 20 20 20 20 20 20 20 20 20 20 20 20 20
20 21 21 21 22 22 22 23 22 22 22 22 22 22 22 22 21 21 22 23 23 22 22 22 22 22 22 22 22 21 21 21 21 21 21 21 21 21 20 20 20 20 20 20 19 19 19 20 20 20 20 20 20 20 20 20 20 20 20 20 20 20 20
19 20 20 20 21 22 22 23 23 22 22 22 22 22 21 21 21 21 22 22 23 23 22 22 22 22 22 22 22 22 21 21 21 21 21 21 21 20 20 20 21 20 20 20 19 19 19 19 20 20 20 20 20 20 20 20 20 20 20 20 20 20 20
18 18 19 20 21 21 22 23 23 23 22 22 22 22 22 21 21 21 21 21 21 22 22 22 22 22 22 22 22 22 22 22 21 21 21 21 21 21 20 20 21 20 20 20 20 20 20 19 19 20 20 20 20 20 20 20 20 20 20 20 20 20 20
17 17 18 19 20 20 21 22 23 23 23 23 23 22 22 22 21 21 21 21 21 21 21 21 20 20 21 22 22 22 22 22 21 21 21 21 21 21 21 21 21 20 20 20 20 20 20 20 20 19 20 20 20 20 20 20 20 20 21 21 20 20 20
15 16 17 17 18 19 19 20 21 22 22 22 22 23 22 22 22 21 21 21 21 21 21 21 20 19 20 20 21 22 22 22 22 21 21 21 21 21 21 21 21 21 20 20 20 20 20 20 20 20 20 20 20 19 19 20 20 20 21 21 21 21 20
14 14 15 16 17 17 17 18 19 20 21 22 22 22 22 22 22 22 21 21 21 20 21 21 20 20 19 19 20 21 22 22 22 22 22 21 21 21 21 21 21 21 21 21 21 21 21 21 20 20 20 20 20 20 20 20 21 21 21 21 21 21 20
14 14 14 15 15 16 16 17 18 19 20 21 21 21 21 22 22 22 22 21 21 21 21 21 20 21 21 20 20 20 21 21 21 22 22 21 21 21 21 21 21 21 22 21 21 21 21 21 20 20 21 20 20 20 20 21 21 21 20 21 21 21 21
14 14 14 14 14 14 15 16 18 19 19 20 20 21 21 21 21 22 22 21 21 21 21 21 20 20 21 21 21 20 20 20 21 21 21 21 21 21 20 21 21 21 22 22 21 21 21 22 21 21 21 21 21 21 21 21 21 21 20 21 21 21 21
14 14 13 13 13 14 15 16 17 17 17 18 19 20 20 20 20 21 21 21 21 21 21 21 20 20 20 21 20 20 20 20 20 20 21 21 21 21 21 21 21 21 22 22 21 21 21 22 22 22 22 22 21 21 21 21 21 21 21 20 21 21 22
15 14 14 13 13 13 14 14 15 15 16 16 17 18 19 19 19 19 19 19 20 20 20 20 20 20 20 20 20 20 20 20 20 20 20 21 21 21 21 21 21 21 21 22 22 22 21 22 22 22 22 22 22 21 22 22 21 21 21 21 20 21 21
16 15 14 13 13 13 14 14 14 14 15 15 16 16 17 18 18 17 17 18 19 19 19 19 19 19 20 20 20 20 20 20 20 20 20 20 21 21 21 21 21 21 21 21 22 22 22 22 22 22 22 22 22 22 22 22 22 22 22 22 21 21 21
16 15 14 13 13 13 13 14 14 14 14 15 15 15 16 16 17 17 16 16 17 17 18 18 18 18 19 19 20 20 20 20 20 20 20 20 20 21 21 21 21 21 21 21 21 22 21 22 22 23 23 22 22 22 22 22 22 22 22 22 22 22 22
16 16 15 14 13 12 12 13 13 14 14 14 15 15 15 15 16 16 16 16 16 16 17 17 18 18 18 19 19 19 20 20 20 20 20 20 21 21 21 21 20 21 20 21 21 22 21 21 21 22 23 23 23 22 22 22 22 22 22 22 22 22 22
16 15 15 14 13 12 12 12 13 13 13 14 14 15 15 15 16 16 16 16 16 16 16 17 18 18 18 18 19 19 19 19 19 20 20 20 21 21 21 21 21 21 21 21 21 22 22 21 21 21 22 23 23 23 23 22 22 23 23 23 23 23 22
15 15 14 14 13 13 12 12 13 14 14 14 14 14 15 15 16 16 16 16 16 16 16 16 17 17 17 18 18 19 19 19 19 19 20 20 21 21 21 21 21 21 21 21 21 21 22 22 21 21 21 21 22 23 23 23 23 23 23 23 23 23 23
14 14 14 13 13 12 12 12 13 13 14 14 14 14 14 15 15 16 16 16 16 16 17 17 17 17 17 18 18 19 19 19 19 19 19 20 20 21 21 21 21 21 21 21 21 21 21 21 22 22 21 21 21 21 22 23 23 23 23 23 23 23 23
13 13 13 13 13 12 12 11 12 12 13 14 14 14 14 15 15 15 15 16 16 16 17 17 17 17 17 17 18 19 19 19 19 19 19 19 19 20 20 20 21 21 21 21 21 21 21 21 21 22 22 21 21 21 21 22 23 24 24 24 24 23 23
13 13 13 12 12 12 11 11 11 12 13 13 14 14 15 15 15 14 14 15 16 16 16 17 17 17 17 17 18 18 19 19 19 19 19 19 19 19 20 20 21 21 21 20 20 21 21 21 21 21 22 22 21 21 21 22 23 24 24 24 24 24 24
12 12 12 12 12 11 11 11 11 12 13 14 14 14 14 15 15 15 15 15 15 15 16 16 16 17 17 17 17 18 18 19 18 19 19 19 19 19 20 20 21 21 21 20 20 20 21 21 21 21 21 22 22 21 21 22 22 23 24 24 24 24 24
11 11 11 12 11 11 11 11 11 11 13 13 14 14 14 15 15 15 15 15 15 15 15 16 16 16 16 17 17 18 18 18 19 19 19 19 19 19 19 19 20 20 21 20 20 19 20 20 21 21 21 22 22 21 21 22 22 22 23 23 23 23 23
11 11 11 11 11 11 11 11 11 11 12 12 13 13 14 14 15 15 15 15 15 15 15 15 15 16 16 16 17 17 18 18 18 19 19 19 19 19 19 19 19 19 20 19 19 20 20 20 20 20 21 21 21 22 22 22 22 22 22 22 22 22 22
11 11 11 11 11 11 11 11 11 12 12 12 12 12 14 14 15 15 15 15 15 16 16 15 15 16 16 16 16 17 17 17 18 18 19 19 19 19 19 19 19 19 19 19 19 19 20 20 20 20 20 20 21 22 22 22 22 22 22 22 22 22 22
11 11 11 11 11 11 11 11 11 12 12 11 11 12 13 14 14 15 15 15 15 15 16 15 16 16 17 17 17 17 17 17 17 18 18 19 19 19 18 18 18 18 18 19 19 19 19 20 20 20 20 20 20 21 22 22 22 22 22 22 22 22 22
11 11 11 11 11 11 11 11 11 11 11 11 12 13 13 13 14 14 15 15 15 15 15 15 16 17 16 17 17 17 17 17 17 18 18 18 18 18 18 18 18 19 19 19 19 19 19 19 20 20 21 20 20 21 21 22 22 22 22 22 22 22 22
10 10 10 10 10 10 11 11 11 11 11 11 11 12 12 13 14 14 14 15 15 15 14 15 16 16 17 17 17 17 17 17 17 18 18 19 18 18 18 18 18 19 20 20 20 20 20 20 20 20 21 21 21 21 21 21 21 21 22 22 22 22 22
10 10 10 10 9 9 10 10 10 11 11 11 11 11 11 12 13 14 14 14 14 15 15 15 15 16 17 17 17 17 17 17 18 18 18 18 19 19 19 18 18 18 18 19 19 20 20 20 20 20 20 20 21 21 21 21 21 21 22 22 22 22 22
9 9 9 9 9 9 9 9 10 11 11 11 11 11 11 11 12 13 14 14 14 14 15 15 15 16 16 17 17 17 17 17 18 18 18 18 18 19 19 19 19 18 17 17 18 19 20 20 20 20 20 20 20 21 21 21 21 21 22 22 22 22 22
9 8 9 9 9 9 9 8 9 10 11 11 11 11 11 12 12 13 14 14 14 14 14 14 15 15 16 16 16 17 17 17 17 17 17 17 17 17 18 19 19 19 18 18 17 18 19 19 20 20 20 20 20 21 21 21 21 21 22 22 22 22 22
8 8 8 8 8 8 8 8 8 8 10 11 11 11 11 12 12 13 14 14 14 14 14 14 14 15 15 16 16 16 17 17 17 17 17 17 17 17 18 18 18 19 19 18 17 18 18 19 19 20 20 20 20 21 21 21 21 21 21 22 23 23 23
8 7 7 7 7 7 7 7 8 7 8 10 11 10 10 11 11 12 13 13 14 14 14 14 14 14 15 15 15 16 16 17 17 17 17 17 17 17 18 18 18 19 19 18 17 17 18 19 19 19 20 20 20 21 21 21 20 20 20 21 22 23 23
7 7 7 7 7 7 7 7 7 7 7 9 10 10 9 10 11 12 12 13 13 13 14 14 14 14 14 14 15 15 15 16 17 17 18 17 17 17 17 17 18 19 19 19 18 17 18 19 19 19 20 20 20 20 20 20 20 21 20 20 21 22 23
7 7 7 6 6 6 6 6 6 7 7 7 9 10 10 10 10 11 12 12 13 13 13 13 13 14 14 14 14 14 14 15 16 17 17 17 16 15 15 15 16 17 18 19 19 18 18 18 19 19 19 19 19 19 19 20 21 21 21 21 20 21 22
7 6 6 6 6 6 6 6 6 6 6 6 7 9 10 10 10 11 11 12 12 12 12 13 13 13 14 13 13 13 13 14 15 15 15 15 15 15 15 15 16 16 18 19 19 18 18 18 18 18 19 19 19 19 19 20 20 21 21 21 20 20 21
6 6 6 6 6 6 6 6 6 6 6 6 6 7 8 9 10 11 10 10 11 10 10 11 12 12 13 13 13 12 12 12 13 14 15 15 16 16 16 16 16 17 19 20 21 20 19 19 19 19 19 19 19 19 19 19 20 20 20 20 20 20 20
6 6 6 6 6 6 6 6 6 5 6 6 6 6 6 7 8 9 9 9 9 10 10 10 10 11 12 12 12 12 12 12 13 14 15 16 16 16 16 17 17 17 19 20 21 21 20 19 19 19 19 19 20 20 19 19 20 20 20 20 20 20 19
6 6 6 6 6 6 6 6 6 6 5 5 6 6 6 6 6 7 8 8 8 8 9 9 9 10 11 11 11 12 13 12 12 13 14 15 16 16 16 16 17 17 18 19 20 21 21 21 20 19 18 19 20 20 20 21 20 20 20 20 20 20 20

ECMWFFLT1_850_temp_075.txt.gz
Temp
24 23 23 23 23 22 22 22 22 22 22 22 22 22 23 22 22 21 21 21 21 21 21 21 21 21 21 21 21 21 21 21 21 21 20 20 20 19 20 20 20 20 20 20 20 20 20 20 20 19 20 21 20 20 20 20 20 20 20 20 19 19 19
25 24 23 23 23 22 22 22 22 22 22 22 22 22 22 22 22 22 21 21 21 21 21 21 21 21 21 21 21 21 21 21 21 21 20 20 20 20 20 20 20 20 20 20 20 20 20 20 20 20 20 21 20 20 20 20 20 20 20 20 20 20 20
24 24 23 22 22 22 22 22 22 22 22 22 22 22 22 22 22 21 21 21 21 21 21 21 21 21 21 21 21 21 21 21 21 21 20 20 20 20 20 20 20 20 20 20 20 20 20 20 20 20 20 20 20 20 21 20 20 20 20 20 20 20 20
22 23 23 23 23 22 22 22 21 21 21 21 22 21 21 21 22 21 21 21 21 21 21 21 21 22 21 21 21 21 21 21 21 21 20 20 20 20 20 20 20 20 20 20 20 20 20 20 20 20 20 20 20 20 20 20 20 20 21 20 20 20 20
21 22 23 24 23 22 22 22 21 21 21 21 21 21 21 21 21 21 21 21 20 20 21 21 21 21 21 21 21 21 22 22 21 21 20 20 20 20 20 20 20 20 20 20 20 20 20 20 20 20 20 21 20 20 20 20 20 20 21 21 20 20 20
19 20 22 23 23 22 22 22 22 21 21 21 21 21 21 21 21 21 21 21 20 20 20 20 21 21 20 20 21 21 21 22 22 21 20 20 20 20 20 20 20 20 20 20 20 20 20 20 20 20 20 21 20 20 20 20 20 20 20 21 21 20 20
18 18 20 21 21 21 21 21 21 21 21 21 21 21 21 21 21 21 20 20 20 20 20 20 20 20 20 20 21 21 21 21 22 22 21 21 20 21 21 20 21 21 21 21 20 20 20 20 20 20 20 20 20 20 20 20 20 20 20 21 21 21 20
17 17 18 19 20 20 19 20 20 20 20 20 20 20 20 21 21 21 20 20 20 20 20 20 20 20 20 20 20 20 21 21 21 21 21 21 21 21 21 21 21 21 21 21 21 20 20 20 20 20 20 20 20 20 20 20 20 20 20 20 20 21 21
17 16 16 17 18 18 18 18 18 19 19 19 19 19 20 20 20 20 20 19 20 20 20 20 20 20 20 20 20 20 20 20 21 21 21 21 21 21 21 21 21 21 21 21 21 21 20 20 20 20 20 20 20 20 20 20 20 20 20 20 20 20 20
16 16 16 16 16 16 17 17 17 18 18 18 18 20 20 20 20 20 19 20 20 20 20 20 20 20 20 21 21 21 21 21 20 20 21 21 21 21 22 22 21 21 21 21 21 21 21 20 20 20 20 20 21 20 20 20 20 20 20 20 20 20 20
16 16 16 15 15 15 15 16 16 17 17 17 18 18 19 18 18 18 19 20 20 19 20 20 20 20 20 20 21 21 21 21 21 21 21 21 22 22 22 22 22 22 21 21 22 22 21 21 21 20 20 20 21 21 20 20 20 20 21 20 20 20 20
17 16 16 15 15 14 14 15 15 16 16 17 17 18 18 18 18 18 18 19 19 19 19 20 20 20 20 20 20 20 21 21 21 21 21 21 22 22 22 23 23 22 22 21 22 22 22 21 21 21 21 21 21 21 21 21 21 21 21 21 20 21 20
17 17 16 16 15 15 15 15 15 15 15 16 16 17 18 18 18 19 18 18 19 19 19 19 20 20 20 20 20 20 21 21 21 21 21 21 22 22 23 23 23 23 23 22 22 22 22 22 21 21 21 22 22 22 21 21 21 21 22 22 21 21 21
18 17 17 16 15 15 15 15 14 14 15 15 15 16 17 18 18 18 18 18 19 19 19 19 19 19 20 20 20 20 21 21 21 21 21 21 22 22 22 23 23 23 23 22 22 22 22 22 22 21 21 22 23 22 21 21 21 21 22 22 22 21 21
19 18 17 17 16 15 15 14 14 15 15 15 15 16 16 17 17 17 17 18 18 18 19 19 19 19 19 20 20 20 20 21 21 21 21 21 21 21 21 22 22 22 23 23 22 22 22 23 23 22 21 21 22 22 22 21 21 21 22 22 22 22 21
19 18 17 17 16 16 15 14 14 14 15 15 15 15 16 16 16 17 17 17 17 17 18 18 19 19 19 19 19 20 20 20 20 21 21 21 21 21 21 21 21 22 22 22 22 22 22 22 23 23 22 22 21 22 22 22 21 21 22 22 23 22 22
18 18 17 17 16 16 15 15 14 14 14 14 14 15 15 15 15 16 16 16 16 17 17 17 18 18 19 19 19 19 19 19 20 20 20 20 20 20 20 20 21 21 21 21 22 22 22 22 22 22 23 22 22 22 22 22 22 22 22 23 23 23 22
17 17 17 16 15 15 15 15 14 14 14 14 14 15 15 15 15 15 15 16 16 16 17 17 17 17 17 18 18 18 19 19 19 20 20 20 20 20 20 20 20 20 21 21 21 21 21 21 21 21 22 22 23 22 22 22 22 22 22 23 23 24 23
17 17 16 16 15 15 14 14 14 14 14 14 14 14 14 15 15 15 15 15 15 16 16 17 17 17 17 17 17 18 18 18 18 19 19 19 20 20 20 20 20 20 20 20 21 20 20 21 21 21 21 22 22 22 23 23 23 22 22 22 23 24 24
16 16 16 15 15 14 14 14 14 13 14 14 14 14 15 15 15 15 15 15 15 15 16 16 16 16 16 17 17 17 18 18 18 18 18 19 19 19 19 20 20 20 19 19 20 20 20 20 20 20 21 21 21 22 22 22 23 23 22 22 23 24 24
15 15 15 15 15 14 14 14 13 13 14 14 14 14 15 16 16 15 15 15 14 15 16 16 16 16 16 16 16 16 17 18 18 18 18 18 18 18 19 19 19 20 20 19 19 19 20 20 20 20 20 21 21 21 21 22 22 22 22 22 22 23 24
14 14 15 15 14 14 14 14 13 13 14 14 13 13 14 16 16 16 16 15 15 16 16 15 15 16 16 16 16 16 16 16 17 17 17 18 18 18 19 18 19 19 20 20 20 19 19 19 20 20 20 20 21 21 21 21 22 22 22 22 22 22 23
14 14 14 14 14 14 14 13 13 13 13 14 14 14 14 15 16 16 16 16 16 16 16 15 15 15 16 16 16 16 16 16 16 16 17 17 18 18 18 18 18 19 20 20 20 20 20 20 20 21 20 20 21 21 21 21 21 21 21 22 21 21 22
14 14 14 14 14 14 14 13 13 13 13 14 14 14 14 14 15 15 15 15 16 16 16 15 14 14 16 16 16 15 15 15 15 15 15 17 17 17 17 18 18 19 20 20 20 20 21 21 21 21 21 21 21 21 21 21 21 21 21 22 22 21 22
14 14 14 14 14 14 13 13 13 13 14 14 14 13 13 14 14 14 14 15 15 15 15 15 14 15 16 17 16 16 16 15 15 15 15 16 16 16 17 18 18 19 19 20 20 20 20 20 21 21 21 21 21 21 21 21 21 21 22 22 22 22 22
14 14 14 14 14 13 12 13 13 13 14 14 13 13 13 13 13 13 14 15 15 15 14 14 14 15 16 17 17 17 17 16 15 15 16 17 17 16 17 18 18 18 18 19 19 19 20 20 20 21 21 21 21 21 21 21 21 21 21 22 22 22 22
13 13 13 13 13 13 13 13 13 13 13 13 13 13 13 13 13 13 13 14 15 15 14 14 15 15 16 16 17 17 17 17 16 16 16 17 17 17 17 18 18 18 18 18 18 19 19 20 20 20 20 21 21 22 22 22 22 22 21 21 22 22 22
13 13 12 12 12 12 13 12 12 13 13 13 13 13 13 13 13 12 12 13 14 14 15 15 15 15 16 16 16 16 17 17 17 17 17 17 17 18 18 18 18 17 18 18 18 19 19 19 19 19 20 20 20 21 22 22 22 22 22 21 21 22 22
12 12 12 12 12 12 12 12 12 12 13 13 12 12 12 12 12 12 12 12 13 14 14 15 16 16 16 16 16 16 16 16 17 17 17 16 16 17 18 19 18 18 18 19 19 19 19 19 19 19 19 19 20 20 21 21 22 22 22 22 21 21 21
11 11 11 11 11 11 11 11 11 11 12 12 12 12 12 12 12 12 12 13 13 13 13 14 15 16 16 16 16 16 16 16 16 17 17 17 17 17 17 18 18 18 18 19 19 18 18 19 19 19 18 18 19 20 20 21 21 21 21 21 21 21 21
11 11 10 11 10 10 10 10 10 10 11 12 12 12 12 12 11 12 12 12 12 12 13 13 14 15 15 15 16 16 16 16 16 16 17 17 17 17 17 17 17 17 18 18 18 17 17 18 18 19 18 19 19 19 19 20 20 20 20 21 21 21 21
10 10 10 10 10 9 9 9 9 9 10 10 11 12 12 11 11 11 12 12 13 13 13 13 13 13 14 15 15 15 15 16 16 17 17 17 17 18 18 18 18 18 18 18 17 17 17 17 17 18 19 19 19 19 19 19 20 20 21 21 21 21 21
10 10 9 9 9 9 8 8 9 9 9 9 10 10 11 11 11 11 12 12 13 13 13 13 12 12 13 14 14 14 14 14 15 15 16 17 17 17 17 17 17 17 17 17 17 16 17 17 17 17 18 19 19 20 20 20 21 21 21 21 21 21 21
10 9 9 9 9 8 8 8 8 8 8 8 9 9 10 11 12 12 12 12 12 12 12 13 13 13 13 13 13 13 13 13 13 14 14 15 16 16 16 17 17 17 17 17 17 17 17 17 17 18 18 18 19 20 20 20 20 20 21 21 20 20 20
9 9 9 9 8 8 8 8 8 8 8 8 8 8 8 10 11 12 13 12 12 11 11 11 12 12 13 13 13 12 13 13 13 14 14 14 15 16 16 16 16 16 17 17 17 17 17 17 18 18 18 18 19 19 20 20 20 20 20 20 20 19 19
9 9 9 8 8 8 8 8 8 8 8 8 8 8 8 8 9 10 11 11 11 10 10 10 10 10 11 12 12 12 12 12 13 13 14 14 14 15 15 16 16 16 17 18 18 18 18 18 18 18 18 18 19 19 20 20 20 19 19 19 19 19 19
9 9 9 8 8 8 8 8 7 7 7 8 7 7 7 7 8 8 9 9 9 9 9 9 9 9 10 11 11 11 11 12 12 13 13 13 13 13 14 16 17 17 18 18 19 19 19 19 19 18 18 18 19 20 20 20 20 19 19 19 19 19 19
9 9 8 8 8 8 7 7 7 7 7 7 7 7 7 8 8 8 8 8 8 8 8 8 9 9 9 10 10 10 11 11 11 12 12 12 12 12 13 14 15 17 17 18 18 18 18 19 19 19 19 18 19 20 21 21 21 21 20 20 20 19 19

ECMWFFLT1_850_temp_078.txt.gz
Temp
22 22 22 22 22 22 23 23 23 23 23 23 23 22 22 22 22 21 21 21 20 20 21 20 21 22 22 22 22 22 22 22 22 21 21 20 20 20 21 22 21 21 21 21 20 20 20 20 20 20 21 21 21 21 21 21 20 20 20 20 20 21 21
22 22 22 21 22 22 22 22 22 22 22 22 22 22 22 21 21 21 21 21 21 20 20 21 21 22 22 22 22 22 22 22 22 22 21 21 20 20 21 21 21 21 21 20 20 20 20 20 20 20 20 21 21 21 21 21 21 21 20 20 20 21 21
21 22 22 22 22 22 22 22 22 22 22 22 22 22 21 21 20 20 21 21 20 20 20 20 21 21 22 22 22 22 22 22 22 22 22 21 21 21 21 21 20 20 21 20 20 20 20 20 20 20 20 21 21 21 21 21 21 21 20 21 21 21 21
22 22 21 21 22 22 22 22 21 22 22 22 21 21 22 21 20 21 21 20 20 20 20 20 20 21 21 21 22 22 22 22 22 22 22 21 21 21 21 20 20 20 21 21 20 20 20 20 20 20 21 21 20 20 21 21 21 21 21 21 21 21 21
22 21 20 20 20 21 21 21 21 21 21 21 21 21 21 21 20 21 21 21 21 21 20 20 20 20 20 21 21 21 22 22 21 22 21 21 20 20 20 20 20 20 20 21 21 20 20 20 20 20 21 21 21 20 21 21 21 21 21 21 21 21 21
22 22 20 19 20 20 21 21 21 21 21 21 21 20 20 20 20 21 21 21 21 21 20 20 20 20 20 20 20 20 21 21 21 21 21 21 20 20 20 20 20 20 20 21 20 20 20 20 20 20 20 21 22 21 21 21 21 21 21 21 21 21 21
21 22 21 20 20 20 20 20 20 21 21 21 20 19 19 20 20 20 20 21 21 21 21 21 20 20 20 20 20 20 21 20 21 20 20 20 20 20 20 20 20 21 21 21 20 20 21 20 20 20 20 21 21 21 20 21 21 21 21 21 21 21 21
20 21 22 21 20 19 19 19 19 19 20 19 19 19 19 19 20 20 20 21 20 21 21 21 21 21 20 20 20 21 21 21 21 20 20 20 21 21 21 21 21 21 21 21 21 21 21 21 20 20 20 20 20 20 20 20 21 20 20 21 22 22 21
19 20 20 20 19 19 19 18 18 18 18 18 19 19 18 19 19 20 20 20 20 20 21 21 21 21 20 21 21 21 21 21 21 21 21 21 21 21 21 21 21 21 21 21 21 21 21 21 21 20 20 20 20 20 20 20 21 21 20 20 21 22 21
18 18 18 18 18 18 18 17 18 17 17 18 18 18 18 19 19 19 20 20 20 20 21 21 21 21 21 21 21 21 20 20 21 21 21 21 21 21 21 21 21 21 21 21 21 21 21 21 21 20 20 21 21 20 20 20 20 20 20 20 20 21 22
17 17 17 17 17 17 17 17 17 17 17 17 17 18 18 18 19 19 20 20 20 20 20 20 20 20 21 21 20 20 20 20 21 20 20 21 21 22 22 22 22 21 21 21 21 22 21 21 21 21 21 21 21 21 21 21 20 20 20 21 21 21 22
16 16 16 16 16 15 15 16 16 16 17 17 17 17 18 18 19 19 19 20 20 20 20 20 19 20 20 20 20 20 20 20 20 20 20 21 22 22 22 22 22 22 22 21 21 22 22 21 21 21 21 21 21 21 21 21 21 20 20 21 21 21 21
17 17 16 16 15 15 15 15 15 16 16 16 16 17 17 18 18 19 19 19 19 19 19 19 19 19 20 21 21 20 20 20 20 20 20 21 21 21 22 22 22 23 22 22 22 22 22 22 22 21 21 21 21 21 21 21 21 21 21 21 21 21 21
18 18 17 16 16 15 15 15 15 15 15 15 16 16 16 17 17 18 18 19 18 18 19 19 19 19 19 19 19 19 19 19 19 20 20 20 21 21 21 22 22 23 23 22 22 22 22 22 22 22 21 21 21 21 21 21 21 21 21 22 22 21 21
19 18 17 17 16 16 15 15 15 15 15 15 15 16 16 16 17 17 18 18 18 18 19 19 19 19 18 18 18 18 19 18 18 19 19 19 20 20 20 21 22 22 23 23 22 22 22 22 22 22 22 21 21 21 21 21 21 21 22 22 23 22 22
19 18 18 17 17 16 16 15 15 15 15 15 15 15 16 16 17 17 18 17 17 18 19 18 19 19 18 18 18 18 18 18 18 18 19 19 19 19 20 21 22 22 22 22 22 22 22 22 23 23 23 22 21 21 21 21 21 21 22 22 23 23 23
19 18 18 17 17 16 16 15 15 15 15 15 15 15 15 15 16 17 18 18 17 18 18 18 18 18 18 18 17 17 18 18 18 19 19 19 19 19 20 20 21 21 21 21 22 22 22 22 22 23 23 23 22 21 21 21 21 21 22 22 22 23 23
18 18 17 17 16 16 16 16 15 15 15 15 15 15 15 15 15 15 16 17 17 18 18 18 17 17 17 17 17 17 18 18 18 18 18 18 19 19 20 20 21 21 21 21 21 22 22 22 22 22 23 23 23 23 22 21 22 22 22 22 22 23 23
18 17 17 16 16 15 15 15 15 15 15 15 15 15 15 15 15 15 15 16 16 16 17 17 16 16 16 17 17 17 18 18 18 18 18 18 19 20 20 20 20 20 21 21 21 21 22 22 22 22 22 22 23 23 23 22 22 22 22 22 22 23 23
18 17 17 16 16 15 15 15 14 14 15 15 15 15 15 15 15 15 15 15 15 15 16 16 16 16 16 16 16 16 17 17 17 18 18 19 19 19 19 19 19 19 20 20 20 21 21 21 22 22 22 22 22 22 22 23 23 23 23 23 23 23 23
17 17 16 16 16 15 15 15 14 14 14 15 15 15 15 15 15 15 15 15 16 16 15 15 15 15 16 16 16 16 16 16 16 17 18 18 18 18 19 19 20 20 20 20 20 20 21 21 21 21 22 22 22 22 22 22 22 23 23 23 23 23 23
16 16 16 16 15 15 15 14 14 14 15 15 15 14 15 15 15 15 15 15 16 16 15 15 15 15 16 16 15 15 16 16 16 16 16 17 18 18 19 19 20 20 20 19 19 20 20 20 20 21 21 22 22 22 22 22 22 22 22 22 23 23 23
16 16 16 16 16 15 14 14 14 15 15 15 15 15 15 15 14 15 15 15 15 15 15 15 14 15 16 16 16 15 16 16 16 16 16 17 18 18 18 19 19 19 19 19 19 19 20 20 20 21 21 21 22 21 22 22 22 22 22 22 22 22 22
16 16 15 16 15 15 14 14 15 15 15 15 15 14 15 15 14 14 14 14 15 15 15 15 14 15 16 16 16 16 16 16 16 16 16 17 17 17 17 18 18 18 18 18 18 19 19 20 20 20 20 21 21 21 21 21 21 21 21 21 21 22 22
16 16 16 15 15 14 14 14 14 14 15 15 14 14 15 15 14 14 14 14 15 15 15 15 14 15 15 16 16 16 16 17 17 17 17 17 17 17 17 17 17 18 18 18 18 18 19 20 20 20 20 20 20 21 21 21 21 21 21 21 21 21 21
15 15 15 15 14 14 14 14 14 14 15 14 14 14 14 14 14 14 13 14 14 14 14 14 14 14 15 16 16 16 16 17 17 17 17 17 17 17 17 18 18 18 19 19 18 18 18 19 19 20 20 20 20 20 20 20 20 20 20 20 21 21 21
15 14 14 14 14 14 14 14 14 14 14 14 14 14 14 14 13 13 13 13 13 13 13 14 14 14 15 16 17 16 16 17 17 17 18 18 18 18 18 18 18 18 19 19 18 18 18 18 18 19 19 19 19 19 19 19 19 19 19 20 20 20 20
14 14 14 13 13 13 13 13 13 13 13 13 13 13 13 13 13 13 13 13 13 12 13 13 13 14 15 16 17 16 17 17 17 17 18 18 18 18 18 18 18 18 18 18 18 18 18 18 18 18 19 19 19 19 19 19 19 19 20 21 21 21 21
13 13 13 13 13 13 12 12 12 12 12 12 12 12 12 12 12 12 12 12 12 12 12 12 13 13 14 15 15 16 16 16 17 17 17 17 18 18 18 19 19 19 19 18 18 19 19 19 19 19 19 19 19 19 19 19 20 21 22 22 22 22 22
12 12 12 12 12 12 11 11 11 12 12 11 11 12 12 12 11 11 11 11 11 12 12 12 12 12 13 13 14 14 15 16 17 17 17 17 18 17 18 18 18 19 19 19 19 19 19 19 19 19 19 20 20 19 19 20 21 21 21 21 21 21 21
12 12 11 11 11 11 11 11 11 11 11 12 11 11 11 11 11 11 11 11 11 12 12 12 12 12 12 13 13 13 14 15 16 17 17 18 18 18 18 18 18 19 19 19 18 18 18 18 18 18 19 19 19 19 19 19 20 21 21 20 20 21 21
11 11 11 11 10 10 10 10 10 10 11 12 12 12 11 11 11 11 12 12 12 12 12 12 12 12 12 13 13 13 13 14 15 16 16 16 17 18 18 18 18 19 19 19 18 18 17 17 18 18 17 17 17 18 18 19 19 20 21 20 20 20 20
11 11 10 10 10 9 9 9 9 9 9 10 11 12 12 12 12 12 12 13 13 12 12 12 12 11 11 11 12 12 12 13 13 14 14 15 15 16 17 17 17 18 18 18 18 17 17 17 17 17 17 17 17 17 18 18 18 19 20 20 20 20 19
11 10 10 10 9 9 9 9 9 9 9 9 9 10 11 12 12 13 13 13 13 12 12 12 11 10 10 11 11 11 12 12 12 13 13 14 14 15 15 16 16 17 17 18 18 18 17 17 17 17 17 17 18 18 18 18 18 18 18 19 19 19 19
10 10 10 10 9 9 9 9 9 9 8 8 8 8 9 10 11 11 12 12 11 11 11 11 11 11 10 10 10 11 11 12 12 13 13 14 14 15 15 15 15 16 17 17 17 17 17 17 18 18 18 18 18 18 19 19 19 18 18 18 18 19 19
10 10 10 10 10 9 9 9 8 8 8 8 8 8 8 8 9 9 9 9 9 9 9 9 10 10 10 10 10 10 11 11 11 12 12 13 13 14 14 15 15 15 16 16 16 17 17 17 18 18 18 18 19 19 19 19 20 20 19 18 18 18 18
10 10 10 10 9 9 9 9 8 8 8 8 8 8 8 8 8 8 9 9 9 9 9 9 9 9 9 9 9 10 10 10 11 11 11 11 12 12 13 13 14 14 15 15 16 17 17 17 17 18 18 18 19 19 19 19 20 20 20 20 19 18 18
10 10 10 9 9 9 9 9 8 8 8 8 8 8 8 8 8 8 8 8 8 8 8 8 8 9 9 9 9 9 9 10 10 10 10 11 11 12 12 12 13 13 14 15 15 16 16 16 16 16 17 18 18 19 19 19 20 20 20 20 20 19 19

ECMWFFLT1_850_temp_084.txt.gz
Temp
21 22 22 23 23 23 23 23 23 23 23 23 23 22 22 22 22 22 22 21 21 21 21 22 22 22 22 22 22 22 21 21 21 21 20 20 20 20 20 20 20 20 20 20 20 20 20 20 20 20 20 20 20 20 20 20 19 19 20 20 20 20 20
21 21 22 22 22 23 22 22 22 22 23 23 23 23 22 22 22 22 22 22 22 22 22 22 22 22 22 22 22 22 21 21 21 21 20 20 20 20 20 20 20 20 20 20 21 21 20 20 20 20 20 20 20 20 20 20 20 19 19 19 20 20 20
21 21 21 20 21 22 20 20 21 22 22 23 23 23 22 22 22 22 22 22 22 22 22 22 22 22 22 22 22 22 21 21 21 21 21 20 20 20 20 20 20 20 20 20 20 21 21 20 20 20 20 20 21 20 20 20 20 20 19 19 19 20 20
20 20 19 18 19 19 18 19 21 21 22 23 23 23 23 22 22 22 22 22 22 22 22 22 22 22 22 22 22 22 21 21 21 21 21 21 21 20 20 20 20 20 20 20 20 20 20 20 20 21 20 20 21 21 21 20 20 20 20 20 20 20 20
19 18 18 17 18 18 19 20 21 22 22 22 22 22 23 23 22 22 22 22 22 22 22 22 22 21 22 22 22 22 21 21 21 21 21 21 21 20 20 20 20 20 20 21 20 20 20 20 20 20 20 20 20 21 21 21 21 20 20 20 20 20 20
17 17 17 17 18 19 20 20 21 22 22 22 22 22 22 22 22 22 22 22 21 21 21 21 21 21 21 21 21 21 21 21 21 21 21 21 21 20 20 20 20 20 20 20 20 20 20 20 20 20 20 20 20 21 21 21 21 21 20 20 20 20 20
17 17 17 17 19 20 19 19 20 21 21 22 22 21 21 22 22 22 22 21 21 21 21 21 21 20 20 20 20 20 20 20 20 20 20 21 21 20 20 20 20 20 20 20 20 20 19 20 20 20 20 20 20 21 21 21 21 21 21 21 21 20 20
17 17 17 17 18 19 18 18 19 20 21 21 21 21 21 21 21 21 21 21 20 20 20 20 19 19 19 19 19 19 19 19 20 20 20 20 20 20 20 20 20 20 20 20 20 20 19 20 20 20 20 20 20 21 21 21 21 21 21 21 21 21 21
17 17 17 17 17 18 18 18 19 19 20 20 20 20 20 20 20 20 20 20 19 20 20 19 19 19 19 20 20 20 20 20 20 20 20 20 20 20 20 20 20 20 20 20 20 20 20 20 20 20 20 20 20 20 21 21 21 21 21 21 21 21 21
17 17 17 17 17 17 17 18 18 19 19 19 20 20 19 19 20 20 20 19 19 20 20 19 19 20 20 21 21 21 21 20 20 20 20 20 20 20 20 20 20 19 20 20 20 20 20 20 20 20 20 20 20 20 20 21 21 21 22 22 22 22 22
17 17 17 17 17 17 17 17 18 18 18 18 18 18 18 18 19 19 19 19 20 20 19 19 19 19 20 20 20 21 21 21 20 20 20 20 20 20 20 20 20 20 20 20 20 20 20 20 20 20 20 20 20 20 20 20 21 21 21 21 21 22 22
17 17 17 17 17 16 16 17 17 17 18 17 18 18 18 18 18 18 18 19 19 19 19 19 19 19 19 20 20 20 20 20 20 20 20 20 20 20 20 20 20 20 20 20 20 20 20 20 20 20 20 20 20 20 20 20 20 20 21 21 21 21 21
16 16 16 16 16 16 16 16 16 17 17 17 17 17 17 17 17 17 18 18 19 18 18 19 19 19 19 19 19 19 20 20 20 20 20 20 20 20 20 20 20 20 20 20 20 20 20 20 20 20 20 20 20 21 21 21 20 20 20 20 20 20 21
15 15 16 16 16 16 16 15 16 16 16 16 16 16 16 16 16 16 17 18 19 18 18 18 19 19 19 19 19 19 20 20 20 20 20 20 20 20 20 20 20 20 20 20 20 21 20 20 20 20 20 20 20 21 21 21 21 21 20 20 20 20 20
15 15 15 15 16 16 16 15 15 16 16 16 16 16 16 16 16 16 16 17 19 18 18 18 19 19 19 19 19 19 20 20 20 20 20 20 20 20 20 20 20 20 20 20 20 20 21 21 20 20 20 20 21 21 21 21 21 21 21 21 21 20 20
15 15 15 15 15 15 15 15 15 15 15 15 15 15 15 15 15 15 16 17 18 18 18 18 18 19 19 19 19 19 19 19 20 20 19 19 19 20 20 20 20 20 20 20 20 20 21 21 21 21 20 21 21 21 21 21 21 21 21 21 21 21 21
14 14 15 15 15 15 15 15 15 15 15 15 15 15 15 15 15 15 16 16 17 17 17 18 18 18 18 18 18 18 18 19 19 19 19 19 19 19 20 20 20 20 20 20 20 20 20 21 21 21 21 21 21 21 21 21 21 22 22 22 22 22 21
15 15 15 15 15 15 14 14 14 14 14 15 15 15 15 15 15 15 15 16 16 16 16 17 17 18 18 18 18 18 18 18 18 18 18 19 19 19 20 20 20 20 20 20 20 20 20 20 20 20 21 21 21 21 21 21 21 21 21 21 21 21 21
15 15 15 15 15 15 15 14 14 14 14 14 14 14 14 15 15 15 15 15 15 16 16 16 17 17 17 17 18 18 18 18 18 18 18 18 19 19 19 19 19 19 19 20 20 20 20 20 20 20 20 21 21 21 21 21 21 21 21 21 21 21 21
15 15 15 14 14 15 14 14 14 14 14 14 14 14 14 15 15 15 15 15 16 16 16 16 16 16 17 17 17 17 18 17 18 18 18 18 18 19 19 19 19 19 19 19 20 20 20 20 20 20 21 21 21 21 21 21 21 21 21 21 21 21 21
15 15 15 14 14 14 14 15 15 15 15 15 15 15 15 15 15 15 15 15 16 16 16 16 16 16 16 16 16 16 17 17 17 17 17 17 18 18 18 18 18 19 19 19 19 20 20 20 20 20 21 21 21 21 21 21 21 21 21 21 21 21 21
15 15 15 15 15 14 14 15 15 15 15 15 15 15 15 15 15 15 15 15 16 16 16 16 16 15 15 15 15 15 15 16 16 16 16 17 17 17 17 18 18 18 18 19 19 19 20 20 19 20 20 21 21 21 21 21 21 21 21 21 21 21 21
15 15 15 15 15 14 14 14 15 15 15 15 15 15 15 15 15 15 15 15 15 16 16 16 16 16 16 16 15 15 15 15 16 16 16 16 17 17 17 17 17 18 18 18 18 19 19 20 19 19 19 20 21 21 21 21 21 21 21 21 21 21 21
15 15 15 15 14 14 14 14 15 15 15 15 15 15 15 15 15 15 14 14 15 15 16 16 17 17 16 16 17 16 16 16 16 16 16 16 16 17 16 16 17 17 17 17 18 18 19 19 19 18 18 20 21 21 21 21 21 21 21 21 21 21 21
15 15 15 14 14 14 14 14 14 14 14 15 14 14 15 15 15 15 14 14 14 15 16 16 17 17 17 17 17 17 17 17 17 17 17 17 17 17 17 16 16 16 16 17 17 18 18 18 18 17 17 18 20 20 21 21 21 21 21 21 21 21 21
14 14 14 14 14 14 14 14 14 14 14 14 14 14 14 14 14 15 15 14 15 15 16 16 17 17 17 17 17 17 17 17 17 18 17 17 17 18 17 17 17 17 17 17 17 17 17 17 17 17 17 18 19 19 19 20 20 20 20 20 21 21 21
14 14 14 14 14 14 14 14 14 14 13 13 13 13 13 14 14 14 14 14 15 15 15 15 16 17 17 17 17 17 17 18 18 18 18 18 18 18 18 18 18 18 18 18 17 17 17 17 17 17 17 18 18 19 19 19 19 19 19 20 20 20 20
14 14 14 14 14 14 14 14 13 13 13 13 12 13 13 13 13 13 13 14 14 14 14 15 15 16 16 17 17 17 17 18 18 18 18 18 18 18 18 18 18 18 18 18 18 18 18 18 17 18 18 19 19 19 19 19 19 19 19 20 20 20 20
14 14 13 14 14 14 13 13 13 12 12 12 12 12 12 12 13 13 12 12 13 13 14 14 15 15 16 16 17 17 17 17 17 17 17 17 17 17 18 18 18 18 18 18 18 18 18 18 17 17 18 18 19 19 18 18 18 18 19 19 19 19 19
14 13 13 13 13 13 13 12 12 12 12 11 12 12 12 12 12 12 12 12 12 12 13 14 14 14 15 15 16 16 16 16 16 16 16 16 16 17 17 17 17 17 17 16 16 16 17 17 17 17 17 17 17 17 17 16 17 17 17 17 17 17 17
13 13 13 13 13 12 12 12 12 12 11 11 11 11 11 11 12 12 12 12 12 12 12 12 13 14 14 15 15 15 16 16 16 16 16 15 15 15 16 16 17 17 16 16 16 16 16 17 17 16 16 16 16 16 16 16 16 17 17 17 17 17 18
12 12 13 12 12 12 12 11 11 11 11 11 11 11 11 11 12 12 12 12 11 11 11 11 12 13 14 14 14 15 15 15 16 16 16 16 15 15 14 14 15 15 16 16 16 16 16 16 16 16 16 16 16 16 16 16 16 16 16 17 17 18 18
12 12 12 12 12 11 11 11 11 10 10 10 10 11 11 10 11 11 10 11 11 11 11 11 11 12 13 14 14 14 14 15 15 16 16 16 16 15 14 14 14 14 14 15 15 15 15 15 15 15 15 15 15 16 16 16 16 16 16 17 17 18 18
12 11 11 11 11 11 10 10 10 10 10 10 9 9 9 9 9 9 9 9 9 10 10 10 10 11 11 12 13 13 14 14 15 15 15 16 16 16 15 15 15 14 14 14 14 14 15 15 15 15 15 15 15 15 15 15 16 16 16 17 17 17 18
11 11 11 10 10 10 9 9 9 9 9 9 8 8 8 8 8 8 9 8 8 9 9 9 9 9 10 10 11 12 12 13 13 14 14 14 15 15 15 15 15 15 15 15 14 14 14 14 15 15 15 15 15 15 15 16 16 16 16 16 17 17 18
10 10 10 10 9 9 9 9 9 9 8 8 8 8 8 8 8 8 8 8 8 8 8 8 9 9 9 10 10 10 11 12 12 13 13 13 14 14 15 15 15 14 15 15 15 15 14 14 14 14 15 15 15 15 15 16 16 16 16 17 17 17 18
10 10 10 9 9 9 9 9 8 8 8 8 8 8 8 8 8 8 8 8 8 8 8 8 8 8 8 9 9 10 10 11 11 12 12 13 13 14 14 15 15 15 15 15 15 15 15 15 15 15 15 15 15 15 15 15 16 16 16 16 16 16 17
10 10 10 9 9 9 9 9 8 8 8 8 8 8 8 7 7 7 7 7 7 7 7 7 7 7 7 8 8 9 9 9 10 10 11 12 13 13 13 14 15 15 15 15 15 15 15 15 15 15 15 15 15 15 15 15 15 15 15 15 15 15 16

ECMWFFLT1_850_temp_087.txt.gz
Temp
20 20 21 21 21 21 21 21 22 22 22 22 22 22 22 22 22 22 21 21 21 21 21 21 21 20 21 20 20 20 20 19 19 19 19 19 20 20 20 19 19 20 20 20 20 20 20 20 20 20 20 20 20 20 20 20 20 19 19 19 19 19 19
20 19 18 19 20 21 21 22 22 22 23 23 23 22 22 22 22 22 22 21 21 21 21 21 21 21 21 21 21 20 20 20 19 19 20 20 20 19 19 19 19 20 20 20 20 20 20 19 19 20 20 20 20 20 20 20 20 20 19 19 19 19 19
18 17 18 19 20 21 21 22 22 22 22 22 23 23 22 23 22 22 22 22 22 22 21 21 21 21 21 21 21 21 21 20 20 20 20 20 20 20 19 19 19 20 20 20 20 20 20 19 19 20 20 20 20 20 20 20 20 20 20 20 20 20 19
17 17 18 19 20 21 21 21 22 22 22 22 22 23 23 23 23 22 22 22 22 22 21 21 21 21 21 21 21 21 21 21 21 20 20 20 20 20 19 19 19 19 19 20 20 20 20 20 20 20 20 20 20 20 20 20 20 20 20 20 20 20 20
18 18 19 19 20 22 21 21 22 22 22 22 22 22 22 23 22 22 22 22 22 22 22 21 21 21 21 21 22 21 21 21 21 21 21 20 20 20 19 19 19 19 19 19 20 20 20 20 20 20 20 20 20 20 20 20 20 20 20 20 20 20 20
18 19 20 19 20 21 21 21 21 22 22 22 22 22 22 22 22 22 22 22 21 21 21 21 21 21 21 21 21 21 21 21 21 21 21 21 21 20 20 20 20 20 20 20 20 20 20 20 20 20 20 20 20 20 20 20 20 20 20 20 20 20 20
19 19 20 19 20 21 20 20 21 21 21 21 21 21 21 21 21 21 20 20 19 19 20 21 21 21 21 21 20 21 21 21 21 21 21 21 21 21 21 20 20 20 20 20 20 20 20 20 20 20 20 20 20 20 20 20 20 20 20 20 20 20 20
18 19 19 19 19 20 19 19 19 20 20 21 21 20 20 20 20 20 20 19 19 20 20 21 21 21 21 20 20 20 20 21 21 21 21 20 20 20 20 20 20 20 20 20 20 20 20 20 20 20 20 20 20 19 20 20 20 20 20 21 21 20 20
17 18 18 18 18 18 18 18 18 19 19 20 20 20 20 20 20 20 20 20 20 20 20 21 21 21 20 20 20 20 20 21 21 21 21 21 21 20 20 20 20 20 20 20 20 20 20 20 20 20 19 19 19 19 19 20 20 21 21 21 21 21 21
17 17 17 18 18 18 18 18 18 19 19 18 18 19 19 19 20 20 20 19 20 20 20 21 21 20 20 20 20 20 20 21 21 21 21 21 21 21 21 20 20 20 20 20 20 20 20 20 20 20 19 19 19 19 19 19 20 20 21 21 21 21 21
17 17 17 18 18 18 18 18 18 18 18 17 17 18 18 19 20 20 20 19 19 20 20 20 20 20 20 20 20 20 20 20 21 21 21 21 21 21 21 21 21 21 20 20 20 20 20 19 19 19 19 19 19 19 19 20 20 20 20 21 21 21 21
17 17 17 17 17 18 18 17 17 17 17 17 17 17 18 19 19 20 19 18 18 20 20 20 20 20 20 20 20 20 20 20 20 20 20 21 21 21 20 20 21 21 21 20 20 20 19 19 19 19 19 19 19 19 20 20 20 20 20 20 21 21 21
16 16 17 17 17 17 17 17 16 16 16 17 17 18 18 19 19 19 19 19 19 20 20 19 19 20 19 19 19 20 20 20 20 20 20 20 20 20 20 20 20 20 20 20 20 19 19 19 19 19 19 19 20 20 20 20 20 20 20 20 20 20 21
15 16 16 16 16 16 16 16 16 16 16 16 18 19 19 19 19 19 19 19 19 19 19 19 19 19 19 18 18 19 20 20 19 19 19 19 19 19 20 20 20 20 20 20 19 19 19 19 19 20 20 20 20 20 20 20 20 20 20 20 20 20 21
15 15 15 15 15 16 16 16 15 15 15 16 17 18 18 18 18 18 18 19 19 18 18 19 19 18 18 18 18 18 19 19 19 19 19 19 19 19 19 19 20 20 19 19 19 19 19 19 20 20 20 20 20 20 20 20 20 20 20 20 20 20 21
14 15 15 15 15 15 15 15 15 15 15 16 17 17 17 18 18 17 17 18 17 17 17 18 18 18 19 19 19 19 19 18 18 18 19 19 19 19 19 19 19 19 19 19 19 19 19 19 20 20 20 20 20 20 20 20 20 20 20 21 21 21 21
14 14 15 15 15 15 15 15 15 15 15 15 16 17 17 18 17 17 17 17 17 16 17 18 18 18 18 19 19 19 19 18 18 18 19 19 19 19 19 19 19 19 19 19 19 19 19 20 20 20 20 21 21 20 20 20 20 20 20 21 21 21 21
14 15 14 15 15 15 15 15 15 15 15 15 15 16 16 17 17 17 17 17 17 17 17 18 18 18 17 17 18 18 18 18 18 18 18 19 19 19 19 19 19 19 19 19 19 19 19 20 20 20 20 21 21 21 21 21 21 20 20 21 21 21 21
14 14 14 14 14 14 15 15 15 15 15 15 15 16 16 16 16 17 17 17 17 17 17 17 17 17 17 17 17 17 17 17 17 17 18 18 18 18 19 19 19 19 19 19 19 19 19 19 20 20 20 20 21 21 21 21 21 21 21 21 21 21 21
14 14 14 14 14 14 14 14 14 15 15 15 15 15 15 15 15 16 16 16 16 16 16 17 17 17 16 16 16 16 16 16 17 17 17 17 17 17 18 18 19 19 19 18 18 19 19 19 19 19 20 20 20 21 21 21 21 21 21 21 21 21 21
14 14 14 14 14 14 14 14 14 15 14 14 14 14 15 15 15 15 15 15 15 16 16 16 16 16 16 16 15 15 16 16 16 17 17 17 17 17 17 18 18 19 18 18 18 18 18 18 19 19 19 19 19 20 20 20 20 20 21 21 21 21 21
14 14 14 14 14 14 14 14 14 15 14 14 14 14 14 15 15 15 15 15 14 15 15 15 15 15 15 15 15 15 15 16 16 16 16 16 17 17 17 17 17 18 18 18 17 17 18 18 18 18 19 19 19 19 19 20 20 20 20 20 20 21 21
14 14 14 14 14 15 15 15 14 14 14 14 14 14 14 15 15 15 15 15 15 14 14 14 15 15 14 15 15 15 15 15 16 16 16 16 16 16 17 17 17 17 18 17 17 17 18 18 18 18 18 18 19 19 19 19 20 20 20 20 19 20 20
14 14 14 14 15 15 15 15 14 14 14 14 14 14 14 14 15 15 15 15 15 15 15 15 15 15 15 15 15 15 15 15 15 16 16 16 16 16 17 17 17 17 17 16 16 16 17 17 18 18 18 18 18 18 19 19 19 20 20 20 19 19 19
14 14 14 14 15 15 15 15 15 14 14 14 14 14 14 14 15 15 15 15 15 16 16 16 15 15 15 15 15 15 16 16 16 16 16 16 17 17 17 17 17 16 16 16 16 16 16 16 16 17 17 17 17 17 18 18 19 19 20 20 20 19 19
14 14 14 14 14 14 15 15 15 15 15 15 14 14 14 14 14 15 15 15 16 16 16 16 16 16 16 16 16 16 17 17 17 17 17 17 17 17 17 17 17 16 16 16 16 16 16 16 16 17 17 17 17 17 17 17 18 19 19 19 20 20 19
14 14 14 14 14 14 14 14 15 15 15 15 14 14 14 14 14 15 15 15 15 16 16 16 16 16 16 16 16 17 17 17 17 17 17 17 17 17 17 17 17 17 16 16 16 16 16 16 17 17 17 17 17 17 17 17 18 18 18 19 19 19 18
14 14 14 14 14 14 14 14 15 15 15 14 14 14 14 14 15 15 15 15 15 15 15 15 16 16 16 16 16 16 16 16 16 17 17 17 17 17 17 17 17 17 17 17 17 17 16 16 17 17 17 17 16 16 16 16 17 17 17 18 18 18 17
14 14 14 14 14 14 14 14 14 14 14 14 14 14 14 14 14 14 15 14 14 14 15 15 15 15 16 16 16 16 16 16 16 16 16 16 17 17 17 17 17 17 17 17 17 17 17 17 17 17 16 16 16 16 16 16 16 16 16 16 17 17 17
15 15 14 14 14 14 14 14 14 14 14 14 14 14 14 14 14 14 14 14 14 14 14 15 15 15 15 15 15 15 15 15 15 16 16 16 16 16 16 16 16 17 17 17 17 17 17 17 17 17 17 16 16 16 16 16 16 16 16 16 16 16 16
14 14 14 14 14 14 14 13 13 13 13 12 12 13 13 13 13 13 13 14 14 14 14 15 15 15 15 15 15 15 15 15 15 15 15 15 15 16 16 16 16 16 16 16 16 16 17 17 17 17 17 17 17 16 16 16 16 16 16 16 16 16 16
14 14 14 14 14 13 13 13 13 12 12 11 11 11 12 12 12 12 12 13 13 14 14 14 14 15 15 15 14 15 15 15 15 15 15 15 15 15 15 15 15 15 15 15 15 15 16 16 16 16 17 17 17 17 16 16 16 16 15 15 15 16 16
13 13 13 13 13 13 12 12 12 12 12 11 10 10 11 11 12 12 12 12 12 12 13 14 14 14 14 14 14 15 15 15 14 14 14 14 14 14 14 14 15 15 15 15 15 15 15 15 15 16 16 16 16 16 16 16 16 16 15 15 15 15 16
13 13 13 12 12 12 12 12 12 11 11 11 10 10 10 10 10 10 11 11 11 11 11 12 13 13 14 14 14 14 14 14 14 14 14 14 14 14 14 14 14 15 15 15 15 15 15 15 15 15 15 15 16 16 16 16 16 15 15 15 15 15 16
13 13 12 12 12 12 12 12 12 11 11 10 10 9 9 9 9 9 9 9 10 10 10 10 11 12 12 13 13 13 13 14 14 14 14 14 15 15 15 14 14 15 15 14 14 14 14 15 15 15 15 15 15 15 15 16 16 16 16 15 15 16 16
12 12 12 12 11 12 11 11 11 10 10 10 9 9 9 8 9 9 9 9 9 9 9 10 10 10 11 11 12 12 13 13 13 14 14 14 15 15 15 14 14 14 14 14 14 14 14 14 14 14 14 15 15 14 14 15 15 16 16 16 16 16 16
12 11 11 11 11 11 11 10 10 10 10 10 9 9 8 8 8 8 8 8 8 8 8 8 8 9 9 10 10 11 11 12 12 13 13 13 14 14 15 15 15 14 14 14 14 14 14 14 13 13 13 13 14 14 14 14 14 15 15 15 16 16 16
12 11 11 11 11 10 10 10 9 9 10 9 9 9 8 8 8 8 8 8 8 8 7 7 7 7 8 8 9 9 10 10 11 11 11 12 12 13 13 14 15 15 14 14 14 14 14 14 14 14 14 13 13 14 14 14 14 14 14 14 14 15 15

ECMWFFLT1_850_temp_093.txt.gz
Temp
20 20 20 21 21 21 21 22 22 22 22 22 22 22 22 22 22 22 22 21 21 21 20 20 20 20 20 20 20 20 20 20 20 20 19 19 19 19 19 19 19 19 19 19 19 19 19 18 18 18 19 19 19 19 19 19 19 19 19 19 19 19 19
20 20 20 20 21 21 21 22 22 22 22 22 22 22 22 22 22 22 22 22 21 21 21 20 20 20 20 20 21 21 21 20 20 20 20 19 19 19 19 19 19 19 19 19 19 19 19 19 19 18 18 19 19 19 19 19 19 19 19 19 19 19 19
19 19 20 20 21 21 21 22 22 22 22 22 22 22 22 22 22 22 22 22 22 21 21 20 20 20 20 20 20 21 21 21 20 20 20 20 20 20 19 19 19 19 19 19 19 19 19 19 19 19 18 19 19 19 19 19 19 19 19 19 19 19 19
19 19 20 20 20 21 21 22 22 22 22 22 22 23 23 23 22 22 22 22 22 21 21 21 20 20 20 20 20 21 21 21 21 20 20 20 20 20 19 19 19 19 19 19 19 19 19 19 19 19 19 19 19 19 19 19 19 19 19 19 19 19 19
19 19 20 20 20 20 21 21 22 22 22 22 22 22 23 23 22 22 22 22 22 21 21 21 20 20 20 20 20 21 21 21 21 20 20 20 20 20 20 20 20 19 19 19 19 19 19 19 19 19 19 19 19 19 19 19 19 19 19 19 19 19 19
18 19 19 20 20 20 20 21 21 21 22 22 22 22 22 22 22 22 22 22 22 21 21 21 20 20 20 20 20 20 21 21 21 21 20 20 20 20 20 20 20 19 19 19 19 19 19 19 19 19 19 19 19 19 19 19 19 19 19 19 19 19 19
19 19 19 19 20 20 20 20 21 21 21 21 21 22 22 22 22 22 22 22 22 22 21 21 21 21 20 20 20 20 20 21 21 21 21 20 20 20 20 20 20 20 19 19 19 19 19 19 19 19 19 19 19 19 19 19 19 19 19 20 20 20 19
19 19 19 19 19 19 20 20 20 21 21 21 21 21 21 21 21 22 22 22 22 22 21 21 21 21 21 20 20 20 20 20 21 21 21 20 20 20 20 20 20 20 20 20 19 19 19 19 19 19 20 20 19 19 19 19 19 19 19 20 20 20 20
18 18 18 18 18 19 19 19 20 20 20 20 21 21 21 21 21 21 22 22 22 22 22 21 21 21 21 20 20 20 20 20 20 20 20 20 20 20 20 20 21 21 20 20 20 19 19 19 19 19 19 20 20 19 19 19 19 19 19 19 20 20 20
18 18 18 18 18 18 19 19 19 19 20 20 20 21 21 21 21 21 21 21 22 22 22 21 21 21 21 20 20 20 20 19 19 20 20 20 20 20 20 20 20 21 21 20 20 20 20 19 19 19 19 20 20 19 19 19 19 19 19 19 19 19 20
18 18 17 17 17 18 18 18 19 19 19 19 20 20 21 21 21 21 20 21 21 21 21 21 21 21 21 21 20 20 20 20 19 19 19 19 20 20 19 19 20 20 20 20 20 20 20 20 20 19 19 19 19 19 19 19 19 19 19 19 19 19 19
17 17 17 17 17 17 17 18 18 18 19 19 19 20 20 20 21 21 20 20 20 20 21 20 20 20 20 20 20 20 20 19 19 19 19 19 19 19 19 19 19 20 20 20 20 20 20 20 20 20 20 19 19 19 19 19 19 19 19 19 19 19 19
16 17 17 17 17 17 17 17 17 18 18 18 19 19 19 20 20 20 20 20 20 20 19 19 19 19 19 18 19 19 20 19 19 19 19 19 19 19 19 19 19 20 20 20 20 20 20 20 20 20 20 20 19 19 19 19 19 19 19 19 19 19 19
16 16 17 17 17 17 17 17 17 17 17 18 18 18 19 19 19 19 19 19 19 19 19 19 19 19 19 18 18 19 19 19 19 18 18 18 18 19 19 19 19 19 20 20 20 20 20 19 19 20 20 20 19 19 19 19 19 19 19 19 19 19 19
16 16 16 17 16 16 16 16 17 17 17 17 17 18 18 18 18 18 18 18 18 18 18 18 18 19 19 18 18 18 18 18 19 19 18 18 18 18 19 18 18 19 19 20 20 20 19 19 19 19 20 19 19 19 19 19 19 19 19 19 19 19 19
15 15 16 16 16 16 16 17 17 17 17 17 17 17 18 18 17 17 17 17 17 18 18 18 18 18 18 18 19 19 19 19 19 19 18 18 18 18 19 19 18 18 19 20 20 20 20 19 19 19 19 19 19 19 19 19 19 19 19 19 19 19 19
15 15 16 16 16 16 16 16 17 17 17 17 16 16 17 17 17 17 17 17 17 17 17 17 18 18 18 18 18 18 19 19 19 19 18 18 19 19 19 19 19 18 19 19 20 20 20 20 20 19 19 19 19 19 19 19 19 20 20 20 20 20 20
15 15 16 16 16 16 15 15 16 16 16 16 16 16 16 16 16 17 17 17 17 17 17 17 17 17 17 17 17 18 18 18 18 18 18 18 18 19 19 19 19 19 19 19 19 19 19 19 20 20 19 19 19 19 19 20 20 20 20 20 20 20 20
14 15 16 16 16 16 15 15 16 16 16 16 16 16 16 16 16 16 16 16 16 16 16 17 17 17 17 17 17 17 17 17 17 17 17 17 18 18 18 19 19 19 19 19 19 19 19 19 20 20 19 19 19 19 19 19 20 20 20 20 20 20 20
15 15 16 16 16 16 16 16 15 15 16 16 16 16 16 16 16 16 16 16 16 16 16 16 16 16 16 16 16 16 16 16 16 16 17 17 17 17 18 18 18 18 18 18 19 19 19 19 20 20 20 19 18 18 18 19 19 20 20 20 20 20 20
15 15 15 15 16 16 16 16 15 15 15 15 15 15 16 16 16 16 16 16 16 16 16 16 16 16 16 16 16 16 16 16 16 16 16 16 16 17 17 18 18 18 18 18 18 19 19 19 20 20 20 19 18 18 18 19 19 19 19 20 20 20 20
15 15 15 15 15 15 15 15 15 15 15 15 15 15 15 15 15 15 15 15 15 15 15 16 16 16 16 16 16 16 16 16 16 16 16 16 16 16 17 17 17 17 17 18 18 18 19 19 19 19 19 19 18 18 18 18 18 18 18 19 20 20 20
15 15 15 15 15 15 14 14 14 14 14 14 14 14 14 14 15 15 15 15 15 14 14 15 15 15 15 15 15 15 15 15 15 16 15 16 16 16 17 17 17 17 17 17 18 18 18 18 19 19 18 18 18 17 17 17 17 17 18 18 19 19 20
15 15 15 15 15 14 14 13 14 14 14 14 14 14 14 14 14 14 14 14 14 14 14 14 14 14 14 14 14 14 15 14 15 15 15 16 16 16 17 17 17 17 17 17 17 17 17 18 18 18 17 17 17 17 17 17 17 17 18 18 18 19 19
14 15 15 14 14 14 13 13 14 14 14 14 14 14 14 14 14 14 14 14 14 14 14 13 13 13 13 13 13 13 14 14 14 14 14 15 15 16 16 17 17 17 17 17 17 17 17 17 17 17 17 16 16 16 17 17 17 17 17 18 18 18 18
14 14 14 14 14 14 13 14 14 14 14 14 14 14 14 14 15 15 15 14 14 14 14 13 13 13 13 13 13 13 13 13 13 14 14 14 15 15 16 16 16 16 16 16 16 17 17 16 16 16 16 16 16 16 16 17 17 17 17 17 17 18 18
14 14 14 14 14 14 14 14 14 14 14 14 14 13 13 14 14 15 15 15 15 15 14 14 14 13 14 14 14 14 14 14 14 14 14 15 15 16 16 16 16 16 16 16 16 16 16 16 15 16 16 16 16 16 16 16 16 17 17 17 17 17 18
14 14 14 14 14 14 14 14 14 14 14 14 13 13 13 14 14 15 15 15 15 15 15 14 14 14 15 15 15 15 15 15 15 15 15 16 16 16 16 16 16 16 16 16 16 16 15 15 15 15 15 15 15 15 15 15 15 16 16 16 17 17 17
14 14 14 14 14 14 14 14 14 14 14 14 14 14 14 14 14 14 15 15 15 15 15 15 14 14 14 14 15 15 15 14 14 15 15 15 16 16 16 16 16 16 16 15 15 15 15 15 14 14 14 14 14 14 14 15 15 15 16 16 16 16 16
14 14 14 14 14 14 14 14 14 14 14 14 14 14 14 14 15 14 14 15 14 14 14 14 14 14 14 14 14 14 14 14 14 14 14 14 15 15 15 16 16 16 15 15 15 15 14 15 14 14 14 14 14 14 14 14 15 15 16 16 16 16 16
14 14 14 14 14 14 14 14 14 14 14 14 14 14 14 14 14 14 14 14 14 14 13 13 13 13 13 13 13 13 14 14 14 14 14 14 14 14 14 15 15 15 15 15 15 15 15 15 15 14 14 14 14 14 14 14 14 14 15 15 15 15 15
14 14 14 14 14 14 14 14 14 14 14 14 14 14 14 14 14 14 14 14 14 13 13 13 13 13 13 13 13 13 13 13 13 14 14 14 14 14 14 14 15 15 15 15 15 15 15 15 15 15 14 14 14 14 14 14 14 14 14 15 15 15 15
14 14 14 14 14 14 14 14 14 14 14 14 14 14 14 14 13 13 13 13 13 13 13 13 13 13 13 13 13 13 13 13 13 13 14 14 14 14 14 15 15 15 15 15 15 15 15 15 15 15 15 15 15 14 14 14 14 14 14 15 15 15 15
14 14 14 14 13 13 13 13 14 14 14 14 14 14 14 14 13 13 12 12 12 12 12 12 13 13 13 13 13 13 13 13 13 13 13 13 14 14 14 14 14 15 15 15 15 15 15 15 15 15 15 15 15 15 15 15 15 15 15 15 15 15 15
14 13 13 13 13 13 13 13 13 13 14 14 13 13 13 13 13 13 12 12 12 11 12 12 12 12 12 12 12 12 13 13 13 13 13 13 13 13 13 13 14 14 14 14 15 15 15 15 15 15 15 15 15 15 15 15 15 15 15 15 16 16 16
13 13 13 13 13 13 13 12 13 13 13 13 13 13 13 13 12 12 12 12 12 11 12 12 11 11 12 11 11 11 12 12 12 13 13 13 13 13 13 13 13 13 13 14 14 14 14 15 15 15 15 15 15 15 15 15 15 15 15 15 16 16 16
13 13 13 13 14 14 13 12 12 12 12 12 12 13 13 12 12 12 12 11 11 11 11 11 11 11 11 11 11 11 11 10 11 11 11 12 12 12 12 12 12 12 12 13 13 13 13 14 14 14 14 14 14 14 15 15 15 15 15 15 15 15 16
13 13 13 14 14 13 13 12 12 12 12 12 12 12 12 12 12 12 11 11 11 11 11 11 11 11 10 10 10 10 10 10 10 10 10 10 11 11 11 11 11 11 11 12 12 12 12 12 12 13 13 13 13 13 14 14 14 15 15 15 15 15 15

ECMWFFLT1_850_temp_096.txt.gz
Temp
22 23 23 23 23 22 22 22 22 22 22 22 21 21 21 21 21 20 20 21 21 21 21 21 20 20 20 20 21 21 21 20 20 20 19 19 19 19 19 19 19 19 19 19 19 19 18 19 19 18 18 19 19 19 19 19 20 19 19 19 19 19 19
22 23 23 23 22 22 22 22 22 22 22 22 21 21 21 21 21 20 21 21 21 21 21 21 20 20 20 20 20 20 21 20 20 20 19 19 19 19 19 19 19 19 19 19 19 19 19 19 19 19 19 19 19 19 20 19 20 20 19 19 19 19 20
21 22 23 22 22 22 22 22 22 22 22 22 22 21 21 21 21 22 22 22 21 21 21 21 21 21 20 20 20 20 20 20 20 20 19 19 19 19 19 19 19 19 19 19 19 19 19 19 19 19 19 19 19 19 19 19 19 20 19 20 19 19 19
20 21 22 22 22 22 22 22 22 22 22 22 22 21 21 22 22 22 22 22 22 21 21 21 21 20 20 20 20 20 20 20 20 20 19 19 19 19 19 19 19 19 19 19 19 19 19 19 19 19 19 19 19 19 19 19 19 19 20 20 19 19 19
20 21 21 22 22 22 22 22 22 22 22 22 22 21 21 22 22 22 22 22 22 21 21 21 21 20 20 20 20 20 20 20 20 20 19 19 19 19 19 19 19 19 19 19 19 19 19 19 19 19 19 19 19 19 19 19 19 19 20 20 19 19 19
20 20 21 21 21 21 22 22 22 22 21 22 22 22 22 22 22 21 22 22 22 22 21 21 20 20 20 20 19 19 20 20 21 20 20 19 19 19 19 19 19 19 19 19 19 19 19 19 19 19 19 19 19 19 19 19 19 19 19 20 19 19 19
19 20 20 21 21 21 21 22 22 21 21 21 22 22 22 22 22 21 21 22 22 22 22 21 21 20 20 20 19 19 19 20 20 20 20 20 19 19 19 19 19 19 19 19 19 19 19 19 19 19 19 19 19 19 19 19 19 19 19 19 20 20 20
19 19 19 20 20 21 21 21 21 21 21 21 21 21 22 22 22 21 21 22 22 22 22 22 21 21 21 20 20 20 20 20 19 20 20 19 19 19 19 19 19 19 19 19 19 19 19 19 19 19 19 19 19 19 19 19 20 19 19 19 19 20 19
20 19 20 20 20 20 20 21 21 21 21 21 20 21 22 22 22 21 21 21 22 22 22 22 22 21 21 21 20 20 20 20 19 19 20 19 19 20 19 20 19 19 19 19 19 19 19 19 19 19 19 19 19 19 19 19 20 19 19 19 20 20 19
20 19 20 20 20 20 20 20 21 21 20 20 20 20 21 21 21 21 21 21 22 21 21 21 21 21 21 21 20 20 20 20 20 19 19 19 19 20 20 20 20 20 19 19 20 20 19 19 19 19 19 19 19 20 20 19 19 19 19 20 20 20 20
21 19 19 19 19 19 19 19 19 20 20 20 20 20 20 19 20 20 20 21 21 21 21 20 20 21 21 20 20 20 20 20 20 20 20 19 19 19 20 20 20 20 20 20 20 20 20 19 19 19 19 19 19 19 20 19 19 19 19 19 19 20 20
21 19 19 19 18 18 18 18 18 19 19 19 20 20 20 19 19 20 19 19 20 20 20 20 20 20 20 20 20 20 20 20 19 19 20 20 20 20 20 19 20 20 20 20 20 20 20 19 19 19 19 19 19 19 19 19 19 19 19 19 19 19 19
20 20 19 19 18 17 17 18 18 18 19 19 19 19 20 20 20 20 20 19 19 19 20 20 19 20 20 20 20 20 20 20 20 19 20 20 20 20 20 20 19 19 20 19 19 20 20 20 19 19 19 19 19 19 19 19 19 19 20 19 19 19 19
18 19 18 18 18 17 18 18 18 19 18 19 19 19 19 19 19 19 19 19 19 19 19 19 19 19 20 20 20 20 20 20 20 20 20 20 20 20 20 20 20 19 19 19 19 19 20 20 20 19 19 19 19 19 19 19 19 19 20 20 19 19 19
17 17 17 17 17 18 18 18 18 18 17 18 18 18 18 18 19 19 19 19 19 18 19 19 19 19 19 19 20 20 20 20 19 19 20 20 20 20 20 20 20 20 20 20 19 19 19 20 20 20 19 19 19 19 19 19 19 19 19 20 19 19 19
18 17 16 17 17 17 17 17 17 17 17 17 17 17 17 17 18 18 18 18 18 18 18 18 19 19 19 19 19 19 19 19 19 19 19 20 20 20 20 20 20 20 20 20 20 19 19 19 19 19 19 19 19 19 19 19 20 19 19 20 20 19 19
18 17 16 16 17 17 16 16 16 16 16 17 17 17 17 17 17 17 18 18 18 18 18 18 18 18 18 19 19 19 19 19 19 19 19 19 19 19 19 19 19 19 20 20 20 20 20 20 20 19 19 19 19 19 19 20 20 19 20 20 20 20 20
17 16 16 16 17 16 16 16 16 16 16 16 16 16 17 17 17 17 17 17 17 18 18 18 18 18 18 18 18 18 18 18 18 18 19 19 19 19 19 19 19 19 19 20 20 20 20 20 19 19 19 19 19 19 19 20 19 19 20 20 20 20 20
17 17 17 17 17 16 15 15 15 15 15 15 16 16 16 16 17 17 17 17 17 17 17 17 17 17 17 17 17 17 18 18 18 18 18 18 18 18 18 18 18 19 19 19 20 19 20 19 19 19 19 18 18 19 19 19 20 20 20 20 20 20 20
18 18 18 18 17 16 15 15 15 15 15 15 15 16 16 16 16 16 16 16 16 17 17 16 17 17 17 17 17 17 17 17 17 17 17 18 18 18 18 18 18 18 18 19 19 19 19 19 18 18 18 18 18 18 18 19 20 20 20 20 20 20 20
18 18 17 18 17 16 15 15 15 16 16 15 15 16 16 16 16 16 16 16 16 16 16 16 17 17 17 17 17 17 17 17 17 17 17 17 17 17 17 17 18 18 18 18 18 18 19 19 19 18 18 18 18 18 18 19 20 20 20 20 20 20 20
18 17 17 17 16 15 14 15 15 15 15 15 15 15 15 16 16 16 16 16 16 16 16 16 16 16 17 17 16 16 16 16 16 17 17 17 17 17 17 17 17 18 18 18 18 18 18 18 18 18 18 17 18 18 18 18 19 19 20 20 20 20 19
17 16 16 16 16 15 14 14 14 15 15 14 14 15 15 15 15 15 15 15 15 15 15 15 15 15 16 16 16 16 16 16 16 16 16 16 16 16 17 17 17 17 17 17 17 18 18 18 18 18 17 17 17 17 18 18 18 19 19 19 19 19 19
16 16 15 15 15 15 14 14 14 14 14 14 14 14 14 14 14 14 14 14 14 14 14 14 14 14 15 15 15 15 16 16 16 16 16 16 16 16 16 16 16 16 17 17 17 17 17 17 17 17 17 17 17 17 17 17 18 18 18 19 19 18 18
15 15 15 15 15 14 14 14 14 14 14 14 13 13 14 14 14 14 14 14 14 14 14 14 14 14 15 15 15 15 15 15 15 15 15 15 15 15 15 15 16 16 16 16 16 16 17 16 16 16 16 17 17 17 17 17 17 18 18 18 18 18 18
15 15 15 15 14 14 14 14 14 14 14 14 13 13 13 14 14 14 14 14 14 14 14 14 14 14 15 15 14 14 14 15 15 14 15 15 15 15 14 15 15 15 15 15 15 15 16 16 16 16 16 16 16 16 16 16 16 17 17 17 17 17 17
14 14 14 14 14 14 14 13 13 13 13 13 13 13 13 14 15 15 14 14 14 14 14 13 14 14 14 14 14 14 14 14 14 14 14 14 14 14 14 14 14 15 15 15 14 14 15 16 15 15 15 15 15 15 16 16 16 17 17 17 17 17 17
14 13 13 13 13 13 13 13 13 13 13 13 12 13 13 13 14 14 14 14 14 14 14 14 14 14 14 14 14 14 15 15 15 14 14 14 14 14 14 14 14 14 14 14 14 14 15 15 15 15 15 15 14 15 16 17 17 17 17 16 16 17 17
14 13 13 13 13 13 13 13 13 13 13 12 12 12 13 13 13 14 14 14 14 13 13 13 14 14 14 14 14 14 15 15 15 14 14 14 14 13 13 14 14 14 14 14 14 14 14 15 14 14 15 15 15 15 16 17 17 17 16 16 16 16 16
14 14 14 14 13 13 13 13 13 13 13 13 12 12 12 12 13 13 13 13 13 13 13 13 13 14 14 14 14 14 14 14 15 14 14 14 14 14 14 13 14 14 13 14 14 14 14 14 14 14 14 14 14 15 16 16 16 16 16 15 16 16 16
14 14 14 14 13 13 13 14 14 14 14 14 13 13 13 13 13 13 13 13 13 13 13 13 13 13 13 14 14 14 14 14 14 14 15 15 14 15 14 14 14 14 14 13 14 14 14 14 14 14 13 13 14 15 15 15 15 15 15 15 15 15 15
13 13 14 14 14 14 13 13 13 14 14 14 14 14 14 14 13 13 13 13 13 13 13 13 13 13 13 13 14 14 14 14 14 14 15 15 15 15 15 14 14 14 14 13 13 14 14 13 13 13 13 13 14 14 14 14 14 14 14 14 14 14 15
13 13 13 14 14 14 13 13 13 14 14 14 14 14 14 13 13 13 13 12 12 12 12 13 12 12 13 13 13 13 13 14 14 14 14 14 14 14 14 14 14 14 13 13 13 13 13 13 13 13 13 13 13 14 14 14 13 14 14 14 14 14 15
14 13 13 13 14 14 13 14 14 14 14 14 13 13 13 13 13 13 12 12 11 12 12 12 12 12 12 11 11 11 12 12 13 13 14 14 14 14 14 14 13 13 14 14 14 13 13 13 13 14 14 13 13 14 13 12 13 14 15 15 15 15 15
14 14 14 14 14 13 13 13 13 13 13 13 13 13 13 12 12 12 12 12 12 12 12 12 12 12 11 10 10 11 11 11 11 12 13 13 13 14 14 14 14 13 14 15 15 14 14 14 14 15 14 14 14 14 13 12 13 15 16 15 16 16 16
14 14 14 14 14 13 13 13 14 14 13 13 13 12 12 12 12 11 11 11 12 12 12 12 12 11 11 10 10 11 11 10 11 12 12 12 12 12 13 14 14 14 14 15 15 14 14 14 15 15 15 14 14 15 15 14 15 16 16 16 16 16 16
14 14 14 14 14 14 14 14 14 14 14 13 13 12 12 12 11 11 11 11 12 12 12 12 12 10 10 10 10 11 12 11 11 12 12 12 12 12 12 12 13 13 14 14 14 14 14 14 14 15 14 14 15 15 15 15 15 16 16 16 16 16 16
14 13 13 13 14 14 14 14 14 14 14 13 13 12 12 11 11 11 11 11 12 12 12 12 11 10 9 9 10 11 11 10 11 11 11 12 12 12 12 12 12 12 13 13 13 13 14 14 14 14 14 14 14 14 15 15 15 15 15 16 16 16 16

ECMWFFLT1_850_temp_102.txt.gz
Temp
25 25 26 25 25 25 25 25 25 25 24 24 24 24 23 23 22 22 21 21 21 21 21 21 21 21 21 21 21 21 21 21 21 21 21 21 20 20 20 20 20 20 20 20 20 20 20 20 20 20 20 20 21 20 21 21 20 21 21 20 21 21 21
24 25 25 25 25 25 25 25 25 24 24 24 24 24 23 23 22 22 21 21 21 21 21 21 21 21 21 21 21 21 21 21 21 21 21 20 20 20 20 20 20 20 20 20 20 20 20 20 20 20 20 20 20 21 21 21 21 21 20 20 21 21 21
24 25 25 25 25 25 25 25 25 24 24 24 24 24 23 23 22 22 21 21 21 21 21 21 21 21 21 21 21 21 21 21 21 21 21 20 20 20 20 20 20 20 20 20 20 20 20 20 20 20 20 20 20 20 20 21 21 21 20 21 21 20 21
24 25 25 24 25 25 25 25 25 24 24 23 24 24 23 23 23 22 22 21 21 21 21 21 21 21 21 21 20 21 21 21 21 21 21 21 21 20 20 20 20 20 20 20 20 20 20 20 20 20 20 20 20 20 20 21 21 21 21 21 21 21 21
23 24 24 23 24 25 25 24 24 24 24 24 24 23 23 23 22 22 22 21 21 21 21 21 21 20 20 21 20 20 21 20 20 20 20 21 21 21 21 20 20 20 20 20 20 20 20 20 20 20 21 21 20 20 20 21 21 21 21 21 21 21 21
23 23 23 23 23 24 24 24 24 24 24 23 24 23 23 23 22 22 22 21 21 21 21 21 21 20 20 20 20 20 20 20 20 20 20 20 21 21 21 21 21 21 20 20 21 21 20 20 20 20 20 21 20 20 21 21 20 21 21 21 21 21 20
23 23 23 22 22 22 23 24 24 24 23 23 23 23 23 22 22 22 22 21 21 21 21 21 21 21 20 20 21 20 20 20 20 20 20 20 20 21 21 21 21 21 21 21 21 21 21 20 20 20 20 20 20 20 21 20 20 20 21 21 21 21 20
22 22 22 22 21 21 22 22 23 23 23 23 23 23 22 22 22 22 22 21 21 21 22 22 22 21 21 21 21 21 20 20 20 20 20 20 20 20 21 21 21 21 21 21 21 21 21 20 20 20 20 20 20 20 20 20 20 20 20 21 21 21 20
22 21 20 20 20 21 21 21 22 23 22 21 21 22 22 21 21 22 22 21 21 21 22 22 22 22 21 21 21 21 21 20 20 20 20 20 20 21 21 21 21 21 21 21 21 21 21 21 21 20 20 20 20 20 20 20 20 20 20 20 20 20 20
22 20 18 19 20 21 21 21 21 22 21 21 21 21 21 20 20 21 21 21 21 21 21 21 21 21 21 21 21 21 20 20 20 20 20 21 21 21 21 21 21 21 21 21 21 21 21 21 21 21 20 20 20 20 20 20 21 21 20 20 20 20 20
21 19 18 19 19 19 20 21 21 21 21 22 22 22 21 21 20 21 21 21 21 21 21 21 21 21 21 21 21 21 20 20 20 20 20 21 21 21 21 21 21 21 21 21 21 21 21 21 21 21 20 20 20 21 21 21 21 21 21 20 20 21 20
20 19 18 19 19 19 20 21 21 21 21 22 22 21 21 21 21 21 21 21 21 21 21 20 20 21 21 21 21 21 20 20 20 20 20 21 21 21 21 21 22 22 22 21 22 22 21 21 21 21 20 21 21 21 21 21 21 21 21 20 20 21 21
19 18 17 18 20 20 20 20 20 21 21 21 21 21 21 21 21 21 21 21 21 20 20 20 20 21 21 21 21 21 21 20 20 20 20 20 20 20 21 21 22 22 22 22 22 22 22 22 22 21 21 21 21 21 20 20 21 21 21 21 20 20 20
19 18 17 18 20 20 20 20 20 20 20 20 20 20 20 21 21 21 21 21 21 20 20 21 20 20 21 21 21 20 21 21 20 20 20 20 20 20 21 21 21 22 22 22 22 22 22 22 22 22 21 20 21 21 20 20 20 21 21 21 21 20 20
19 19 18 18 19 19 20 20 20 20 19 19 19 19 19 20 20 21 20 20 20 20 20 21 21 21 21 21 21 21 21 21 20 20 20 20 20 20 20 21 21 21 21 21 22 22 22 22 22 22 22 21 20 21 21 20 20 20 21 21 21 20 20
21 21 20 19 19 19 19 19 19 19 18 18 19 19 19 19 19 20 20 19 19 19 20 20 21 21 21 21 21 21 21 21 20 20 20 20 20 20 20 21 21 21 21 21 21 21 21 21 21 22 22 22 21 21 21 20 20 21 21 21 21 21 20
20 20 20 19 19 19 19 19 18 18 18 18 19 19 19 18 18 19 19 19 19 19 19 19 19 20 20 20 20 20 20 20 20 20 20 20 20 20 20 21 21 21 21 21 21 21 21 21 21 21 21 21 21 21 20 20 21 21 21 21 21 20 20
18 18 18 19 19 19 18 18 18 18 18 18 18 18 18 18 18 18 18 18 18 18 19 19 19 19 19 19 19 19 19 19 19 20 20 20 19 19 20 20 20 20 21 21 20 20 20 20 21 20 20 21 21 20 20 20 20 21 21 21 21 20 20
16 17 18 18 18 18 18 17 17 17 17 17 17 17 17 17 17 17 17 18 18 18 18 18 18 19 19 19 18 18 18 18 18 19 19 19 19 19 19 19 20 20 20 20 20 20 20 20 20 20 20 20 20 20 20 20 20 21 21 21 21 21 21
17 17 17 17 17 17 17 17 16 16 16 16 16 16 17 17 17 17 17 17 17 17 17 17 18 18 18 18 18 18 18 18 18 18 18 18 18 19 19 19 19 19 19 20 20 20 20 20 20 20 20 20 20 20 20 20 20 20 20 21 21 20 20
17 17 16 16 16 16 16 16 16 16 16 15 15 16 16 16 17 17 17 17 17 17 17 17 17 17 18 18 18 18 18 18 18 18 18 18 18 18 18 18 19 19 19 19 19 19 19 19 19 19 19 19 19 20 20 20 20 20 20 20 20 20 20
17 16 16 16 15 15 15 15 15 15 15 15 15 15 15 16 16 16 16 16 16 17 17 17 17 17 17 17 18 18 18 17 18 18 18 18 18 17 17 18 18 18 18 19 18 18 19 19 19 19 19 19 19 19 20 20 20 19 19 20 20 20 20
16 16 16 15 15 15 15 15 15 15 15 15 15 15 15 15 16 16 16 16 16 16 16 16 16 16 16 17 17 17 17 17 17 17 17 17 17 17 17 18 18 18 18 18 18 18 18 18 18 18 19 19 19 19 19 19 19 19 19 19 19 19 19
16 16 15 15 15 16 16 16 16 15 15 15 15 15 15 15 15 15 16 16 15 15 15 15 16 16 16 16 16 16 16 16 16 17 16 16 17 17 17 17 17 17 18 18 18 18 18 17 18 18 18 18 18 18 19 19 19 19 19 19 19 19 19
16 15 15 15 15 16 16 16 16 16 16 16 16 15 15 15 15 15 15 15 15 15 15 15 15 15 15 15 15 15 16 16 16 16 15 15 16 16 16 16 17 17 18 18 17 17 17 17 18 18 18 17 18 18 18 18 19 19 19 19 19 19 18
16 15 15 15 15 15 15 15 15 15 16 16 16 15 15 15 15 16 16 15 15 15 15 15 15 15 15 15 15 15 15 15 15 15 15 15 15 15 15 15 16 16 17 17 17 17 17 17 17 17 17 17 17 17 17 18 18 18 18 18 18 18 18
15 15 15 15 14 15 14 14 14 14 15 16 15 15 15 15 15 16 16 15 15 15 15 14 14 14 14 15 15 15 15 15 15 15 15 15 15 15 15 15 14 15 15 16 16 16 16 16 16 16 17 16 16 16 17 17 17 17 17 17 17 17 17
15 15 14 14 14 14 14 14 14 14 15 15 15 15 15 16 16 16 15 15 15 15 15 14 14 14 14 14 14 14 14 14 15 15 15 15 14 14 14 14 14 14 15 15 15 15 16 16 15 15 15 16 15 16 16 16 16 16 16 16 17 17 17
16 16 15 15 15 14 15 14 14 14 14 14 14 14 15 15 15 15 15 15 15 15 15 15 15 15 15 15 14 14 14 14 14 14 14 14 14 14 14 14 14 14 14 15 15 15 15 15 15 15 15 15 15 16 16 16 16 16 16 16 16 16 16
17 16 16 16 15 15 15 15 15 15 14 14 14 15 15 15 15 15 15 14 14 14 15 15 15 15 15 15 15 14 14 14 14 14 14 14 14 14 14 14 14 14 14 14 15 15 14 14 15 15 15 15 15 15 15 15 15 16 16 16 16 16 16
16 16 16 16 16 15 15 15 15 14 14 14 15 16 15 15 15 15 15 15 14 14 14 13 13 14 15 15 14 14 13 13 14 14 14 14 14 14 15 15 15 15 14 14 14 14 14 14 14 15 15 15 14 14 15 15 15 15 15 15 15 16 16
16 16 16 16 16 15 15 15 15 14 14 14 15 15 16 15 15 15 15 15 15 15 14 14 14 15 15 15 15 14 13 13 14 14 14 14 14 14 14 14 15 15 14 14 14 14 14 14 14 14 15 15 14 14 14 14 14 14 15 15 15 16 16
16 16 16 16 16 15 15 15 14 14 14 14 14 14 15 15 15 15 14 14 14 15 15 14 14 14 15 14 14 15 14 14 14 14 14 14 13 13 14 14 14 14 14 15 15 14 14 14 14 14 14 14 14 14 14 14 13 14 15 15 15 16 16
16 16 16 15 15 15 15 15 14 14 14 14 14 15 16 16 15 14 13 13 13 14 14 13 13 13 13 13 13 14 14 14 14 13 13 14 13 13 13 13 13 13 14 15 14 14 14 14 14 14 14 14 14 13 14 14 13 13 14 14 15 15 16
16 16 15 15 15 15 15 14 14 14 14 15 15 15 15 16 16 15 14 14 14 15 14 13 13 13 13 13 13 13 13 13 13 13 13 13 13 13 13 13 13 13 14 14 14 14 13 13 14 14 14 14 13 13 13 13 13 13 13 14 14 14 15
15 15 15 15 15 14 14 14 14 14 14 15 15 15 15 15 15 14 14 15 15 15 15 15 13 13 13 13 13 13 13 13 13 14 14 13 13 13 14 14 13 14 14 14 14 14 13 13 13 13 14 14 14 13 12 13 13 14 14 14 14 14 15
15 15 14 14 14 14 14 13 13 14 14 14 14 14 14 14 13 13 13 14 15 15 15 15 13 12 13 13 14 14 14 13 13 14 14 14 13 14 14 14 14 14 14 14 14 14 14 14 14 13 13 13 14 13 13 13 13 14 14 14 14 15 15
15 15 14 14 14 14 13 13 13 14 14 14 14 14 14 13 12 12 13 14 14 14 14 14 13 12 12 12 13 14 14 13 13 13 12 12 13 13 13 13 13 13 13 13 13 14 14 14 14 14 13 13 13 14 14 14 14 14 14 14 14 15 15

ECMWFFLT1_850_temp_105.txt.gz
Temp
24 24 25 25 25 25 25 25 24 24 24 24 24 23 23 23 22 22 21 21 21 21 21 21 21 21 21 21 21 21 21 21 21 21 21 20 21 21 21 20 20 20 21 21 20 20 20 20 20 20 20 20 21 20 20 21 21 21 21 20 20 20 21
23 24 24 25 25 25 25 25 24 24 24 24 24 23 23 23 22 22 21 21 21 21 21 21 21 21 21 21 21 21 21 21 21 21 21 21 21 21 20 20 20 20 21 21 21 20 20 20 20 20 20 20 20 21 21 21 21 21 21 21 20 20 21
23 23 24 25 25 25 25 25 25 24 24 24 24 23 23 23 23 22 22 22 21 21 21 21 21 21 21 21 21 21 21 21 21 21 21 21 21 21 20 20 20 20 20 20 20 20 20 21 20 20 20 20 21 21 20 21 21 21 21 21 21 21 21
23 24 24 25 25 25 25 25 25 24 24 24 24 23 23 23 23 22 22 22 22 21 21 21 21 21 21 21 21 21 21 21 21 21 21 21 21 20 20 20 20 20 20 20 20 20 20 20 20 20 20 20 20 20 20 20 21 21 21 21 21 21 21
23 23 24 24 25 25 25 25 25 25 24 24 24 23 23 23 23 22 22 22 22 22 22 22 21 21 21 21 21 21 21 21 21 21 21 21 21 20 20 20 20 20 20 20 20 20 20 20 20 20 20 20 20 20 20 20 20 20 21 21 21 21 21
23 23 24 24 23 23 24 24 24 24 24 24 24 23 23 23 23 22 22 22 22 21 22 21 21 21 21 21 21 21 21 21 21 21 21 21 21 20 20 20 20 20 20 20 20 20 20 20 20 20 20 20 20 20 20 20 21 20 20 21 21 21 21
23 22 22 22 22 22 23 24 23 23 23 23 23 24 23 23 23 22 22 22 21 21 21 21 21 21 21 21 21 21 21 21 21 21 21 20 20 20 20 20 20 20 20 20 20 20 20 20 20 20 20 20 20 20 20 20 20 20 20 20 21 21 21
22 21 21 21 22 22 23 23 22 22 22 22 23 23 23 22 22 22 22 21 21 21 21 20 21 21 21 21 20 20 20 21 21 21 20 20 20 20 20 20 20 21 20 20 21 21 20 20 20 20 20 20 20 20 20 20 20 20 20 20 20 20 20
22 21 22 22 22 22 22 22 22 22 22 22 23 23 22 22 22 22 21 21 21 21 20 20 20 20 21 21 20 20 20 20 21 21 20 20 20 20 20 20 20 20 20 20 20 21 21 20 20 20 20 20 20 20 20 20 20 20 20 20 20 20 20
22 21 21 21 21 22 22 22 22 21 21 22 22 22 22 22 22 22 21 21 21 21 21 21 21 21 21 21 21 20 20 20 20 20 20 20 20 20 20 21 20 20 20 20 20 21 21 21 20 20 20 20 20 20 20 20 20 20 20 20 20 20 20
21 20 20 20 21 21 22 22 22 21 21 22 22 22 22 22 22 22 21 21 21 21 21 21 21 21 21 21 21 21 20 20 20 20 20 20 20 20 20 21 21 21 21 21 21 21 21 21 21 21 20 20 20 20 20 20 20 20 20 20 20 20 20
18 19 19 20 21 21 21 21 21 21 21 21 21 21 21 22 22 22 21 21 21 21 21 21 21 21 21 21 21 21 21 20 20 20 20 20 20 20 21 21 21 21 21 21 21 21 21 21 21 21 21 21 21 20 20 20 20 20 20 20 20 20 20
17 18 18 19 20 21 21 21 21 21 21 21 21 21 21 21 21 22 21 21 21 21 21 21 21 21 21 21 21 21 21 21 20 20 20 20 20 20 21 21 21 21 21 21 21 21 21 21 21 21 21 21 21 21 21 20 20 20 20 20 20 19 19
17 17 17 18 19 19 20 20 20 20 20 20 21 21 21 21 21 21 21 21 21 21 21 21 21 21 21 21 21 21 21 21 20 20 20 20 20 20 21 21 21 21 21 21 21 21 21 21 21 21 21 21 21 21 21 21 20 20 20 20 20 20 20
17 17 16 17 17 18 18 18 19 20 20 20 21 21 21 21 20 21 21 21 21 20 20 21 21 21 21 21 21 21 21 20 20 20 20 20 20 20 20 21 21 21 21 22 22 21 21 21 21 21 21 21 21 21 21 21 20 20 20 20 20 20 20
17 16 17 17 17 17 17 17 18 18 19 19 19 20 20 20 20 20 20 20 20 20 20 20 20 20 20 20 20 20 20 20 20 20 20 20 20 20 20 20 21 21 21 21 22 21 21 21 21 21 21 21 21 21 20 20 20 21 21 20 20 20 20
17 17 17 17 17 18 18 18 18 18 18 18 18 18 19 19 19 19 19 19 19 19 19 19 19 19 20 20 20 20 20 20 20 20 20 20 20 20 20 20 20 21 21 21 21 21 21 21 21 21 21 21 21 21 20 20 20 20 21 21 21 20 20
17 17 17 17 17 17 18 18 18 18 18 18 18 18 18 18 18 18 19 18 18 18 18 18 19 19 19 20 20 19 19 19 20 20 20 20 20 20 20 20 20 21 21 21 21 21 21 21 21 21 21 21 21 21 21 20 20 20 21 21 20 21 20
17 17 17 17 17 17 18 18 18 18 18 18 18 18 18 18 18 18 19 19 18 18 18 18 18 18 19 19 19 19 19 19 19 19 20 20 20 20 20 20 19 20 20 20 21 21 21 21 21 21 21 21 21 21 21 20 20 20 21 20 20 20 20
16 16 16 17 17 17 17 17 17 17 17 17 17 18 18 18 19 19 19 19 19 19 19 19 18 18 18 19 19 19 19 19 19 19 19 19 19 19 19 19 19 19 19 20 20 20 21 21 20 21 21 21 21 21 21 20 20 20 20 20 20 20 20
16 16 16 16 16 16 16 16 16 17 17 17 17 17 17 18 18 19 19 18 19 19 19 19 19 18 18 18 19 19 19 19 19 19 19 19 19 19 19 19 19 19 19 20 20 20 20 20 20 20 20 20 20 20 20 20 20 20 20 20 20 20 20
16 16 16 16 16 16 16 17 17 18 18 18 18 18 18 18 18 18 18 18 18 18 18 18 18 18 18 18 18 18 18 18 19 18 18 19 18 19 19 19 19 19 19 19 19 19 19 20 20 20 19 19 19 19 19 19 20 20 20 20 20 20 19
15 15 15 15 15 15 16 17 17 18 18 18 18 18 18 18 18 18 18 18 18 18 17 17 17 17 17 17 18 18 18 18 18 18 18 18 18 18 18 18 18 18 18 18 18 19 19 19 19 19 18 18 19 19 18 18 19 19 20 20 20 20 19
15 15 14 15 15 16 16 16 17 17 17 17 17 17 18 18 18 18 18 17 17 17 17 17 17 17 17 17 17 17 17 17 17 17 17 17 17 17 17 17 17 18 18 18 18 18 18 18 17 17 17 17 18 18 18 18 18 19 19 19 19 20 19
15 14 14 14 15 16 16 16 16 16 16 16 16 16 16 16 16 17 16 16 16 16 17 17 17 16 16 16 16 16 16 16 16 16 16 16 16 16 17 17 17 17 17 17 17 17 17 17 17 17 17 17 17 18 18 18 18 18 18 19 19 19 19
15 15 14 14 15 15 14 14 14 14 15 15 15 15 15 15 15 16 16 16 15 15 15 15 15 15 15 15 15 15 15 15 15 16 16 16 16 16 16 16 16 16 16 16 16 16 17 17 17 17 17 17 17 17 17 17 17 18 18 18 18 18 19
15 15 14 14 14 14 14 14 14 13 13 13 13 14 14 15 15 15 15 15 15 14 14 14 14 14 14 14 14 14 14 14 15 15 15 16 16 16 15 15 15 15 15 15 15 16 16 16 17 16 16 16 16 16 17 17 17 17 17 17 17 17 18
15 14 14 14 14 14 14 14 14 14 13 13 13 14 14 15 15 15 15 14 14 14 14 14 14 14 14 14 14 14 14 14 14 15 15 15 16 16 15 14 14 14 15 15 15 15 15 16 16 16 16 16 15 15 16 16 16 16 16 16 17 17 18
15 15 14 14 14 14 14 14 14 14 13 13 13 14 14 14 15 15 14 14 14 14 14 14 14 14 14 14 14 14 14 14 14 14 14 14 15 15 15 15 14 14 14 14 14 15 15 15 15 15 15 15 15 15 16 15 15 15 15 16 17 17 17
15 15 15 15 15 14 14 14 14 14 14 14 14 14 14 15 16 15 15 15 14 14 14 14 14 14 14 14 14 14 14 14 14 14 14 14 14 14 14 15 15 15 14 14 14 14 14 14 14 14 14 15 15 15 15 14 14 15 15 15 16 16 16
16 15 15 15 15 15 15 14 14 15 15 15 16 16 16 16 16 16 16 16 15 15 15 15 15 15 14 14 14 14 14 14 14 14 14 15 15 15 14 14 14 14 14 14 14 14 14 14 14 14 14 14 14 14 14 14 14 14 15 15 15 15 15
16 16 16 15 15 15 14 14 15 15 16 16 16 16 16 16 16 16 16 16 16 16 15 15 15 15 15 14 14 14 14 14 14 14 14 14 15 15 15 15 14 14 14 14 14 14 14 14 14 14 14 13 13 14 14 14 14 14 14 15 15 15 15
16 16 16 15 15 15 14 14 15 15 15 15 16 16 16 16 16 16 16 16 15 15 15 15 14 14 14 14 14 14 14 13 13 13 14 14 14 14 15 15 15 14 14 14 14 14 15 15 14 14 13 13 14 13 13 14 14 14 14 15 15 15 15
16 16 16 15 15 15 15 15 15 14 14 15 16 16 15 16 16 16 16 15 15 15 15 14 14 14 14 14 14 13 13 13 13 13 13 13 14 14 14 15 15 14 14 14 14 15 15 15 15 14 14 13 13 13 14 14 14 14 14 15 15 15 16
16 16 16 15 15 15 15 15 15 15 15 15 16 16 16 16 16 16 16 15 15 15 15 14 13 13 13 13 13 13 13 13 13 13 14 14 13 13 13 14 14 14 14 14 14 14 14 14 14 14 14 13 13 14 14 15 15 14 15 15 16 16 16
16 16 15 15 15 15 15 15 15 15 15 15 15 16 16 16 16 15 15 15 15 16 15 15 14 13 13 13 13 13 14 14 13 13 14 14 14 14 13 13 13 13 13 13 14 14 14 14 14 14 14 14 14 14 14 14 15 15 15 15 16 16 16
15 15 15 15 15 15 15 15 15 15 15 15 15 15 15 15 15 15 15 15 15 15 15 15 14 14 13 13 13 14 14 14 14 14 14 14 14 14 14 13 13 13 13 13 13 14 14 14 14 14 14 14 14 14 14 15 15 15 15 15 15 15 15
15 15 15 14 15 14 14 14 15 15 15 15 15 15 15 15 15 15 15 15 15 15 15 15 14 14 14 14 14 14 14 14 14 14 14 14 14 14 14 14 13 12 12 12 12 13 13 13 14 14 14 14 14 14 14 15 15 15 15 15 15 15 15

ECMWFFLT1_850_temp_111.txt.gz
Temp
22 22 22 22 22 22 22 22 22 22 22 22 22 21 21 21 21 21 21 21 21 21 21 20 20 20 20 20 20 20 20 20 20 20 20 20 20 20 20 20 20 20 20 20 20 20 20 20 20 20 20 20 20 20 20 20 20 20 20 20 20 20 20
23 22 22 22 22 22 22 22 22 22 22 22 22 22 21 21 21 21 21 21 21 21 21 21 21 20 20 20 20 20 20 20 20 20 20 20 20 20 20 20 20 20 20 20 20 20 20 20 20 20 20 20 20 20 20 20 20 20 20 20 20 20 20
23 22 22 23 23 22 22 22 22 22 22 22 22 22 21 21 21 21 21 21 21 21 21 21 21 21 20 20 20 20 20 20 20 20 20 20 20 20 20 20 20 20 20 20 20 20 20 20 20 20 20 20 20 20 20 20 20 20 20 20 20 20 20
23 23 23 23 23 23 22 22 22 22 22 23 23 22 22 22 22 21 21 21 21 21 21 21 21 21 21 20 20 20 20 20 20 20 20 20 20 20 20 20 20 20 20 20 20 20 20 20 20 20 20 20 20 20 20 20 20 20 20 20 20 20 20
22 23 23 23 23 23 23 22 22 22 22 23 23 23 23 22 22 22 22 22 21 21 21 21 21 21 21 21 21 20 20 20 20 20 20 20 20 20 20 20 20 20 20 20 20 20 20 20 20 20 20 20 20 20 20 20 20 20 20 20 20 20 20
22 23 23 23 23 23 23 23 22 22 22 23 23 23 23 22 22 22 22 22 21 21 21 21 21 21 21 21 21 21 20 20 20 20 20 20 20 20 20 20 20 20 20 20 20 20 20 20 20 20 20 20 20 20 20 20 20 20 20 20 20 20 20
22 22 22 23 23 23 23 23 23 23 23 23 23 23 23 22 22 22 22 22 22 21 21 21 21 21 21 21 21 21 20 20 20 20 20 20 20 20 20 20 20 20 20 20 20 19 20 20 20 20 20 20 20 20 20 20 20 20 20 20 20 20 20
22 22 22 22 23 23 23 23 23 22 22 23 23 23 23 22 22 22 22 22 22 22 21 21 21 21 21 21 21 21 21 20 20 20 20 20 20 20 20 20 20 20 20 20 20 20 20 20 20 20 20 20 20 20 20 20 20 20 20 20 20 20 20
23 22 22 22 22 22 23 22 22 21 21 22 22 23 23 23 22 22 22 22 22 22 22 21 21 22 22 21 21 21 21 21 20 20 20 20 20 20 20 20 20 20 19 20 20 20 20 20 20 20 20 20 20 20 20 20 20 19 20 20 20 20 20
22 22 22 21 21 22 23 23 22 21 21 21 21 21 22 22 23 22 22 22 22 22 22 22 22 22 22 21 21 21 21 21 20 20 20 20 20 20 20 20 20 20 20 20 20 20 20 20 20 20 20 20 20 20 20 20 20 20 20 20 20 20 20
21 20 21 21 21 22 22 23 23 22 21 21 21 21 20 20 21 22 22 22 23 22 22 22 22 22 22 21 21 21 21 21 20 20 20 20 20 20 20 20 20 20 20 20 20 20 20 20 20 20 20 20 20 20 20 20 20 20 20 20 20 20 20
20 20 20 21 21 22 22 23 23 22 22 21 22 21 20 19 19 20 21 22 22 22 22 21 21 22 22 21 21 21 21 21 20 21 21 20 20 20 20 20 20 20 20 20 20 20 20 20 20 20 20 20 20 20 20 20 20 20 20 20 20 20 20
19 20 20 20 21 21 22 23 23 22 22 21 22 22 22 21 19 18 18 19 21 21 21 21 21 21 21 21 21 21 21 21 21 20 20 20 20 20 20 20 20 20 20 20 20 20 20 20 20 20 20 20 20 20 20 20 20 20 20 20 20 20 20
19 19 19 19 20 20 21 22 22 22 21 21 21 21 21 21 20 19 19 19 20 21 21 21 21 20 20 21 21 20 21 21 20 20 20 20 20 20 20 20 20 20 20 20 20 20 20 20 20 20 20 20 20 20 20 21 21 21 20 20 20 20 20
18 18 18 18 19 19 20 20 21 21 20 20 20 20 20 20 20 20 20 21 21 21 21 21 21 21 20 20 20 20 20 21 20 20 20 20 19 19 20 20 20 20 20 20 20 20 20 20 20 20 20 20 20 20 20 20 21 21 21 20 20 20 20
18 17 17 18 18 18 19 19 19 19 19 19 19 19 19 19 20 20 20 21 21 21 21 21 21 21 20 20 20 20 20 20 20 20 20 19 19 19 19 19 19 19 19 19 20 20 20 20 20 20 20 20 20 20 20 21 21 21 21 20 20 20 20
17 17 17 17 17 18 17 17 18 18 18 17 17 18 18 19 19 20 20 20 21 21 21 21 21 20 20 20 20 20 20 20 20 20 20 20 19 19 19 19 19 19 19 19 19 20 20 20 20 20 20 21 21 21 21 21 21 21 21 20 20 20 20
17 17 17 17 17 17 17 17 17 17 17 17 17 17 18 18 19 19 20 20 20 20 21 21 20 20 20 20 20 20 20 20 20 20 20 20 20 19 19 19 19 19 19 19 19 19 20 20 20 20 20 20 20 21 21 21 21 21 21 20 20 20 20
17 17 17 17 17 17 17 17 17 17 17 17 17 17 17 18 18 19 19 19 19 19 20 20 20 19 20 20 20 20 20 20 20 20 20 20 20 20 19 19 19 19 19 19 19 20 20 20 20 20 20 20 20 20 20 21 21 21 20 20 20 20 20
16 16 17 17 17 17 17 17 17 17 17 17 17 17 17 18 18 18 19 19 18 18 18 19 19 19 19 20 20 20 20 20 20 19 19 20 20 20 19 19 19 19 19 19 19 20 20 20 20 20 20 20 20 20 20 20 20 20 20 20 20 20 20
16 16 16 17 17 17 17 17 17 17 17 17 17 17 17 17 17 18 18 18 18 18 18 18 18 19 19 19 19 19 19 19 19 19 19 20 20 19 19 19 19 19 19 19 19 20 20 20 19 19 20 20 20 20 20 20 20 20 20 20 19 20 20
16 16 16 16 17 16 16 16 17 17 17 17 17 17 17 18 18 18 18 18 19 18 18 18 18 18 19 19 19 19 19 19 19 19 19 19 19 19 19 19 19 19 19 19 19 19 19 19 19 18 18 19 19 19 19 19 19 19 19 19 19 19 19
16 16 16 16 16 16 16 16 17 17 17 17 17 17 17 18 18 18 18 18 18 18 18 18 18 18 18 18 19 19 19 19 19 19 19 18 18 18 18 19 19 18 18 18 18 18 18 18 18 18 18 18 18 18 18 19 19 19 19 19 19 18 18
16 16 16 16 16 16 16 16 16 16 16 16 16 17 17 17 17 17 17 18 18 18 18 18 18 18 18 18 19 19 19 19 18 18 18 18 17 17 18 18 18 18 17 18 18 18 18 18 18 18 18 18 18 18 18 18 18 18 18 18 18 18 18
15 15 15 15 15 15 15 15 16 16 16 16 16 16 16 16 16 16 16 17 17 17 17 17 17 18 18 18 18 18 18 18 18 18 17 17 17 17 17 17 17 17 17 17 17 17 17 18 18 17 17 18 18 18 18 18 18 18 18 18 17 17 17
15 15 15 15 15 15 15 15 16 16 16 16 16 16 16 16 16 16 17 17 17 17 17 17 17 17 17 17 17 17 17 17 17 17 17 16 16 17 16 16 16 16 16 16 17 17 17 17 17 17 17 18 18 18 18 17 17 17 17 17 17 17 17
14 14 15 14 14 15 15 15 15 15 16 16 16 16 16 16 16 17 17 17 17 17 17 17 17 16 16 16 16 16 16 16 16 16 16 16 16 16 16 16 16 16 16 16 16 17 17 17 17 17 17 17 17 17 16 16 16 16 16 16 16 16 16
14 14 14 14 14 15 15 15 15 15 15 15 15 15 15 15 16 16 16 16 16 16 16 16 16 16 16 16 16 16 16 16 16 15 15 15 15 15 15 15 15 15 15 15 16 16 16 16 16 16 16 16 16 16 16 16 16 16 16 16 16 16 16
14 13 13 13 14 14 15 15 15 15 15 15 15 15 15 15 16 15 15 15 15 15 15 15 15 15 15 15 15 15 15 15 15 15 15 14 14 15 15 15 15 15 15 15 15 15 15 16 16 16 16 16 16 16 16 15 15 15 14 14 14 14 15
14 14 14 14 14 14 15 15 15 15 15 14 14 14 14 15 16 15 15 15 15 15 15 15 15 15 15 15 15 15 14 14 14 14 14 14 14 15 15 15 15 15 15 14 14 14 15 15 15 15 16 16 16 16 15 15 14 14 13 13 13 13 14
15 15 15 15 15 15 16 16 16 15 15 14 14 15 15 15 16 16 16 16 15 15 16 15 15 15 14 14 14 14 13 13 13 14 14 14 14 15 15 15 15 14 14 14 14 14 14 14 14 14 14 15 15 15 15 14 14 14 13 13 13 13 13
15 15 15 15 15 16 16 16 16 16 15 15 15 15 15 15 15 16 16 16 15 15 15 15 15 15 14 14 14 13 13 14 14 14 14 14 14 14 14 14 14 14 14 14 14 14 14 14 14 13 13 14 14 14 14 14 14 13 13 13 13 13 13
15 15 15 15 16 16 16 16 16 16 16 16 15 15 15 15 15 15 15 15 15 15 15 15 15 15 15 14 14 14 14 14 14 14 14 14 14 14 14 14 14 13 13 13 13 13 14 14 14 13 13 13 13 14 14 13 13 13 13 13 13 13 14
15 15 15 15 16 16 16 16 16 16 16 16 16 16 16 15 15 15 15 15 15 15 15 15 15 15 15 15 15 14 14 14 14 14 14 14 14 14 14 14 14 13 13 13 13 13 13 14 14 13 13 13 13 13 13 13 13 13 13 14 14 14 14
15 15 15 15 15 15 16 16 16 16 16 16 16 16 15 16 16 15 15 15 15 15 15 15 15 15 15 15 15 14 14 14 14 14 14 14 14 14 13 13 13 13 13 13 13 13 13 14 14 13 13 13 13 13 13 13 13 13 13 14 14 14 14
15 15 15 15 15 15 15 15 16 16 16 16 16 16 15 15 15 15 15 15 15 15 15 15 15 15 15 15 14 14 14 14 14 14 14 14 14 13 13 14 14 14 14 14 14 14 13 13 14 13 13 13 13 13 13 13 13 13 13 14 14 14 14
15 15 15 15 15 15 15 15 15 15 15 15 16 15 15 15 15 15 15 15 15 15 15 15 15 14 14 14 14 14 14 13 13 13 13 14 14 14 13 13 13 14 14 14 14 14 14 14 14 13 13 13 13 13 13 13 13 13 14 14 15 15 15
15 15 15 15 14 15 14 14 14 15 15 15 15 15 15 15 15 15 15 15 15 15 15 14 14 14 14 14 14 13 13 13 13 13 13 14 14 14 13 13 13 13 13 13 13 13 13 13 13 13 13 13 13 13 13 13 14 14 14 14 15 15 15

ECMWFFLT1_850_temp_114.txt.gz
Temp
22 22 22 22 22 22 22 22 22 22 22 22 22 21 21 21 21 21 21 20 20 20 20 20 20 20 20 20 19 19 19 19 19 19 19 19 19 19 19 19 19 19 19 19 20 20 19 19 19 19 19 19 19 19 19 19 19 19 19 19 19 19 19
22 22 22 22 22 22 22 22 22 22 22 22 22 22 21 21 21 21 21 21 21 21 21 20 20 20 20 20 20 19 19 19 19 19 19 19 19 19 19 19 19 19 19 19 19 19 19 19 19 19 19 19 19 19 19 19 19 19 19 19 19 20 20
21 22 22 22 22 22 22 22 22 22 23 22 22 22 22 22 22 22 21 21 21 21 21 21 21 21 21 20 20 20 20 19 19 19 19 19 19 19 19 19 19 19 19 19 19 19 19 19 19 19 19 19 19 19 19 19 19 19 19 19 19 20 20
22 22 22 23 23 22 22 22 22 22 23 23 22 22 22 22 22 22 22 21 21 21 21 21 21 21 21 21 20 20 20 20 20 20 19 19 19 19 19 19 19 19 19 19 19 19 19 19 19 19 19 19 19 19 19 19 19 19 19 19 19 20 20
22 22 22 22 22 22 22 22 22 22 23 23 23 23 23 23 22 22 22 21 21 21 21 21 21 21 21 21 21 21 21 20 20 20 20 20 19 19 19 19 19 19 19 19 19 19 19 19 19 19 19 19 19 19 19 19 19 19 19 19 19 20 20
21 22 22 22 22 23 23 22 22 23 23 23 23 23 23 22 22 22 22 22 21 21 21 21 21 21 21 21 21 21 21 21 20 20 20 20 20 19 19 19 19 19 19 19 19 19 19 19 19 19 19 19 19 19 19 19 20 20 19 19 20 20 20
22 22 22 22 23 23 23 23 23 23 23 23 23 23 23 22 22 22 22 22 21 21 21 21 21 21 21 21 21 21 21 21 21 20 20 20 20 20 19 19 19 19 19 19 19 19 19 20 20 19 19 19 19 19 19 19 19 19 19 19 20 20 20
22 22 22 23 23 23 23 23 23 23 23 23 22 22 22 22 22 22 22 22 21 21 21 21 21 21 21 21 21 21 21 21 21 20 20 20 20 20 20 20 20 20 19 20 20 19 20 20 20 19 19 19 19 19 19 19 20 19 19 19 20 20 20
22 22 23 23 23 23 23 23 23 23 23 22 22 22 22 22 22 22 22 22 22 22 21 21 21 21 21 21 21 21 21 21 21 20 20 20 20 20 20 20 20 20 20 20 20 19 20 20 19 19 19 19 19 19 19 20 20 20 19 20 20 20 19
21 22 22 23 23 23 23 23 23 23 23 22 22 22 22 22 22 22 22 22 22 22 22 22 22 21 21 21 21 21 21 21 21 21 20 20 20 20 20 20 20 20 20 20 20 19 19 19 19 19 19 19 19 19 19 19 19 19 19 19 19 19 19
21 21 22 22 22 23 23 23 23 23 23 23 23 23 23 22 22 22 22 22 22 22 22 22 22 22 21 21 21 21 21 21 21 21 21 20 20 20 20 20 20 20 20 20 20 19 19 19 19 19 19 19 19 19 19 19 19 19 19 19 19 19 19
20 21 21 22 22 22 22 22 23 23 23 23 23 23 23 23 23 23 22 22 22 22 21 21 21 21 21 21 21 21 21 21 21 21 21 21 20 20 20 20 20 20 20 20 20 20 19 19 19 19 19 19 19 19 19 19 19 19 19 19 19 19 19
19 20 21 21 21 21 21 21 22 22 23 23 23 23 23 23 23 23 23 22 22 22 22 21 21 21 21 21 21 21 21 21 21 21 21 21 21 20 20 20 20 20 20 20 20 20 20 20 19 20 20 19 20 20 20 20 19 19 19 19 19 19 19
17 18 19 19 20 20 20 20 20 21 21 22 23 23 23 23 23 23 23 23 23 23 22 22 22 21 21 21 21 21 21 21 21 21 21 21 21 20 20 20 20 20 20 19 19 20 20 20 20 20 20 20 20 20 20 20 20 20 20 20 20 19 19
17 17 17 18 19 19 19 19 19 20 20 21 21 22 22 22 22 22 22 22 23 23 23 23 22 22 21 21 21 21 21 21 21 21 21 21 21 20 20 20 20 20 19 19 19 19 19 20 20 20 20 20 20 20 20 20 20 20 20 20 20 20 20
17 17 17 17 18 18 19 19 19 19 20 20 20 20 21 21 21 21 21 21 22 22 22 22 22 22 22 21 21 21 21 21 21 21 21 21 20 20 20 20 20 19 19 19 19 19 19 19 19 19 20 20 20 20 20 20 20 20 20 20 20 20 20
16 16 17 17 17 18 18 19 19 19 20 20 20 20 20 20 20 20 20 20 21 21 22 22 21 21 21 21 21 21 21 21 21 21 21 20 20 20 20 20 19 19 19 19 19 19 19 19 19 19 19 20 20 20 20 20 20 20 20 20 20 20 20
16 17 17 17 17 17 18 18 19 19 19 19 19 19 19 19 19 19 20 20 20 20 21 21 21 20 20 20 20 20 20 20 20 20 20 20 20 20 19 19 19 19 19 19 19 19 19 19 19 19 19 19 20 20 20 20 20 20 20 20 20 20 20
17 17 17 17 17 17 17 18 18 18 18 18 18 19 19 19 19 19 19 19 19 19 19 19 19 19 19 19 19 19 20 20 20 20 20 20 20 20 19 19 19 19 19 19 19 19 18 18 19 19 19 19 19 19 20 20 20 20 20 20 20 20 20
16 16 17 17 17 17 17 17 17 17 18 18 18 18 18 19 18 18 18 18 18 18 19 19 19 18 19 19 18 18 19 19 19 19 19 19 19 19 19 19 19 19 19 19 19 18 18 19 19 19 19 19 19 19 19 20 20 20 20 20 20 20 20
17 16 16 16 16 16 16 17 17 17 17 17 17 17 17 18 18 18 18 17 17 17 18 18 18 18 18 19 19 18 18 19 19 19 19 19 19 19 19 19 18 18 18 19 19 19 19 19 19 19 19 19 19 19 19 19 19 19 20 20 20 20 20
16 16 16 16 16 16 16 17 17 17 17 17 16 17 17 17 17 17 17 17 17 17 17 18 18 18 18 18 19 18 19 19 18 18 18 18 19 18 18 18 18 18 18 19 18 18 18 19 18 18 18 19 19 19 18 18 19 19 19 19 19 19 19
15 15 16 16 16 16 16 17 17 17 17 16 16 17 17 17 17 17 17 17 17 17 17 17 18 18 18 18 19 19 19 19 18 18 18 18 18 18 18 18 18 18 18 18 18 18 18 18 18 18 18 18 19 18 18 18 18 18 18 18 19 19 19
15 15 15 15 15 16 16 16 16 16 16 16 16 16 16 16 16 16 17 17 17 17 17 17 17 18 18 18 19 19 19 18 18 18 18 18 17 17 17 17 18 18 18 18 17 18 18 18 18 18 18 18 18 18 18 18 18 18 18 18 18 18 18
15 15 15 15 15 15 16 16 16 16 16 16 16 16 16 16 16 16 16 16 17 17 17 17 17 17 17 18 18 18 18 17 17 17 17 18 17 17 17 17 18 18 18 17 17 18 18 18 18 18 18 18 18 18 18 17 17 17 17 17 17 17 17
15 14 14 14 14 15 15 15 16 16 16 16 16 16 16 16 16 16 16 16 16 16 16 16 16 16 17 17 17 17 17 17 17 17 17 17 17 17 17 17 18 18 17 17 18 18 17 17 18 18 17 17 17 17 17 16 16 16 16 16 16 16 16
15 14 14 14 14 14 14 15 15 15 15 15 15 15 15 15 15 15 15 15 16 16 16 16 15 16 16 16 16 16 16 16 16 16 16 16 17 17 17 17 17 17 16 17 17 17 16 16 17 17 16 16 16 16 16 16 16 15 15 16 16 16 16
15 14 14 14 14 14 14 14 14 15 14 14 14 14 15 15 15 15 15 15 15 15 15 15 15 15 15 15 15 15 15 16 16 16 16 16 16 16 16 16 16 16 16 17 16 16 16 16 16 16 16 15 15 15 15 15 15 15 15 15 15 15 15
15 15 15 15 15 15 15 14 15 15 14 14 14 14 14 15 15 15 15 15 14 14 14 15 14 14 14 14 15 15 15 15 15 15 15 15 15 15 15 15 15 15 15 15 15 15 15 15 15 15 15 15 15 15 15 15 15 15 14 14 14 14 14
14 15 15 15 15 15 15 15 15 15 14 14 13 13 14 14 15 15 15 15 14 13 14 14 14 14 14 14 14 14 14 14 14 14 14 14 14 14 15 15 15 14 14 14 14 14 14 15 15 14 15 15 15 15 15 15 14 14 14 14 14 14 14
14 14 15 15 15 15 16 16 16 15 15 14 14 14 14 14 14 15 15 14 14 14 14 14 13 13 13 14 14 14 14 14 14 14 14 14 14 14 15 15 14 14 14 14 14 14 14 14 14 14 14 14 14 14 14 14 14 14 14 14 14 14 14
14 14 15 15 15 15 15 15 15 15 15 15 14 14 14 14 15 15 14 14 14 14 14 14 14 14 14 14 14 14 14 14 14 14 15 15 15 15 15 15 14 14 14 14 14 14 14 14 14 13 13 13 13 13 14 14 14 14 14 14 14 14 14
13 14 14 15 15 15 15 15 15 15 15 15 15 15 15 15 15 15 15 14 14 15 15 15 15 14 14 14 14 14 14 14 14 14 14 14 14 14 14 14 14 14 14 13 13 13 13 13 13 13 13 13 13 13 13 13 13 13 14 14 14 14 14
14 14 14 14 15 15 15 16 15 15 15 15 15 15 15 15 16 15 15 15 15 15 15 15 15 14 14 14 14 14 14 14 14 14 14 14 14 14 14 14 14 14 14 14 14 14 13 13 13 13 13 13 13 13 13 13 13 13 13 13 14 14 14
14 14 14 14 14 15 15 16 15 15 15 15 15 15 15 15 15 15 15 15 15 15 15 15 15 14 14 14 14 14 14 14 14 14 14 14 14 14 14 14 14 14 14 14 14 14 14 14 13 13 13 13 13 13 12 12 13 13 13 14 14 14 15
14 14 14 14 14 15 15 15 15 15 15 15 15 15 15 15 15 15 15 15 15 15 15 14 14 14 14 14 14 14 14 14 14 14 14 14 14 14 14 14 14 14 14 14 14 14 14 14 13 13 13 13 13 13 13 13 13 13 13 14 14 15 15
15 15 14 14 14 14 15 15 15 15 15 15 15 15 15 15 15 15 15 15 15 14 14 14 14 14 14 14 13 13 13 13 13 13 14 14 14 14 14 14 14 14 14 14 14 14 13 13 13 13 13 13 13 13 13 13 13 13 14 14 14 15 15
14 14 14 14 14 14 14 14 14 14 15 15 14 14 14 14 14 14 14 14 14 14 14 14 14 14 13 13 13 13 13 13 13 13 13 13 13 13 13 13 13 13 13 13 13 13 13 13 13 13 13 13 13 13 13 13 13 13 14 14 14 14 14

ECMWFFLT1_850_temp_117.txt.gz
Temp
21 21 21 21 21 21 22 22 22 22 22 22 22 21 21 21 21 20 20 20 20 20 20 20 20 20 20 20 20 19 19 19 19 19 19 19 19 19 19 19 19 19 19 19 19 19 19 19 19 19 19 19 19 19 19 19 19 19 19 19 19 19 19
21 21 21 21 21 21 22 22 22 22 22 22 22 22 21 21 21 21 20 20 20 20 20 20 20 20 20 20 20 20 20 19 19 19 19 19 19 19 19 19 19 19 19 19 19 19 19 19 19 19 19 19 19 19 19 19 19 19 19 19 19 19 19
20 21 21 22 22 22 22 22 22 22 23 22 22 22 22 22 22 21 21 21 20 20 20 20 20 20 20 20 20 20 20 20 19 19 19 19 19 19 19 19 19 19 19 19 19 19 19 19 19 19 19 19 19 19 19 19 19 19 19 19 19 19 19
21 21 22 22 22 22 22 22 22 23 23 22 22 22 23 22 22 22 21 21 21 21 20 20 20 20 20 20 20 20 20 20 19 19 19 19 19 19 20 19 19 19 19 19 19 19 19 19 19 19 19 19 19 19 19 19 19 19 19 19 19 19 19
21 21 22 22 22 22 22 22 23 23 23 23 23 23 23 23 23 22 22 21 21 21 21 21 20 20 20 20 20 20 20 20 20 19 20 20 20 20 20 20 20 19 19 19 19 19 19 19 19 19 19 19 19 19 19 19 19 19 19 19 19 19 19
20 21 21 22 22 22 23 23 23 23 23 23 23 23 23 23 23 22 22 22 21 21 21 20 20 20 21 21 21 21 20 20 20 20 20 20 20 20 20 20 20 19 19 19 19 19 19 19 19 19 19 19 19 19 19 19 19 19 19 19 19 19 19
20 20 21 22 22 23 23 23 23 23 23 23 23 23 23 23 23 23 22 22 22 21 21 21 20 20 20 21 21 21 21 21 20 20 20 20 20 20 20 20 20 20 19 19 19 19 19 19 19 19 19 19 19 19 19 19 19 19 19 19 19 19 19
21 21 21 22 22 23 23 23 23 23 23 23 23 23 23 23 23 23 23 23 22 22 21 21 21 20 20 21 21 21 21 21 21 20 20 20 20 20 20 20 20 20 20 20 20 20 20 19 19 19 19 19 19 19 19 19 19 19 19 19 19 19 19
21 21 22 22 22 23 23 23 23 23 23 23 23 23 23 23 23 23 23 23 22 22 22 21 21 21 20 21 21 21 21 21 21 21 21 21 21 20 20 20 20 20 20 20 20 20 20 20 19 19 19 19 19 19 19 19 19 19 19 19 19 19 19
21 21 21 22 22 23 23 23 23 23 23 23 23 23 23 23 23 23 23 23 23 23 22 22 21 21 20 21 21 21 21 21 21 21 21 21 21 21 20 20 20 20 20 20 20 20 20 20 19 19 19 19 19 19 19 19 19 19 19 19 19 19 19
20 21 21 21 22 22 22 23 23 23 23 23 23 23 23 23 23 23 23 23 23 23 22 22 21 21 21 21 21 21 21 21 21 21 21 21 21 21 21 20 20 20 20 20 20 20 20 19 19 19 19 19 19 19 19 19 19 19 19 19 19 19 19
20 20 21 21 21 21 21 22 22 23 23 23 24 23 23 24 23 23 23 23 23 23 23 22 22 21 21 21 21 21 21 21 21 21 21 21 21 21 20 20 20 20 20 20 20 20 20 19 19 19 19 19 19 19 19 19 19 19 19 19 19 19 19
19 19 20 20 20 20 21 21 22 22 22 23 23 23 23 24 24 24 24 23 23 23 23 23 22 22 21 21 21 21 21 21 21 21 21 21 21 21 20 20 20 20 20 20 20 20 20 19 19 19 19 19 19 19 19 19 19 19 19 19 19 19 19
18 18 19 20 20 20 20 21 21 21 22 22 22 22 23 23 23 23 23 23 23 23 23 23 23 22 22 22 21 21 21 21 20 21 21 21 21 21 20 20 20 20 20 20 20 20 20 19 19 19 19 19 19 19 19 19 20 20 20 20 19 19 19
17 18 19 19 19 20 20 20 21 21 21 21 22 22 22 22 22 22 22 23 23 23 23 23 23 23 22 22 22 22 21 21 21 21 21 21 21 21 21 20 20 20 20 20 20 20 20 19 19 19 19 19 19 19 19 19 20 20 20 20 20 20 20
17 18 18 19 19 20 20 20 20 20 21 21 21 22 22 21 21 21 21 22 22 22 22 22 22 22 22 22 22 22 22 21 21 21 21 21 21 21 21 20 20 20 20 20 20 20 20 19 19 19 19 19 19 19 19 20 20 20 20 20 20 20 20
16 17 18 18 19 19 19 20 20 20 20 20 21 21 21 21 21 21 21 21 21 21 21 21 22 22 22 22 21 21 21 21 21 21 20 20 20 20 20 20 20 20 20 20 20 19 19 19 19 19 19 19 19 19 19 20 20 20 20 20 20 20 20
16 17 17 17 18 18 18 19 19 19 19 19 20 20 20 20 20 20 20 20 20 20 20 20 20 21 21 21 20 20 20 19 20 20 20 20 20 20 20 20 20 19 19 19 19 19 19 19 19 19 19 19 19 19 19 19 20 20 20 20 20 20 20
17 17 17 17 17 17 18 18 18 18 18 18 19 19 19 19 19 20 20 20 20 20 20 20 20 20 19 20 20 20 20 19 18 19 19 19 19 19 19 19 19 19 19 19 19 19 19 19 19 19 19 19 19 19 19 19 19 19 19 20 20 20 20
17 17 17 17 17 17 17 17 17 17 17 17 17 18 18 18 18 19 19 19 19 19 19 19 19 19 19 19 20 20 20 19 19 18 18 19 19 18 18 18 19 19 19 19 19 19 19 19 19 19 19 19 19 19 19 19 19 19 19 19 20 20 20
16 16 17 16 16 16 17 17 17 17 17 17 17 17 17 17 18 18 18 18 18 19 19 19 19 19 19 19 19 19 19 19 19 18 18 18 19 18 17 18 18 18 19 19 19 19 19 19 19 19 19 19 19 19 19 19 19 19 19 19 19 19 19
15 16 16 16 16 17 17 17 17 17 17 17 16 17 17 17 17 17 17 17 17 17 18 18 18 18 19 18 18 18 18 19 19 18 17 17 18 18 18 18 18 18 19 19 19 19 19 19 19 19 19 19 19 19 19 19 18 18 19 19 19 19 19
14 15 16 16 16 17 17 17 17 17 16 16 16 16 16 17 17 17 17 17 17 17 17 17 17 17 18 18 17 17 18 19 19 18 17 17 17 18 18 18 18 18 19 19 19 19 19 19 18 18 18 18 18 18 18 18 18 18 18 18 18 18 18
14 15 15 16 16 16 16 16 16 16 16 16 16 16 16 16 16 16 16 16 16 16 16 17 17 17 17 17 17 17 18 18 18 18 17 17 17 18 18 18 18 18 18 18 18 18 18 18 18 18 18 18 18 18 18 18 18 18 18 18 18 18 18
15 15 15 15 15 16 16 15 15 16 16 16 16 16 16 16 16 16 16 16 16 16 16 16 16 16 16 17 17 17 17 17 17 17 17 17 17 17 17 17 17 18 18 18 18 18 18 18 18 18 18 18 17 17 17 17 17 17 17 17 17 17 17
15 14 15 15 15 15 15 15 15 15 16 16 16 16 16 15 15 16 16 16 16 16 16 15 15 16 16 16 16 16 16 16 16 16 16 16 16 16 16 17 17 18 18 18 18 18 18 18 18 18 17 17 17 16 16 16 16 16 16 16 16 16 16
15 14 14 14 14 15 15 15 14 15 15 15 15 15 15 15 15 15 15 15 15 15 15 15 15 15 16 16 16 16 16 16 16 15 15 16 16 15 16 16 17 17 17 17 18 18 18 17 17 17 16 16 16 15 15 15 15 15 15 15 16 16 16
15 14 14 14 14 14 15 15 14 14 14 14 14 15 15 15 15 15 15 15 14 14 14 14 14 14 15 15 15 15 15 15 15 15 15 16 16 16 16 16 16 16 16 16 16 16 16 16 16 16 15 15 15 15 15 15 15 15 15 15 15 15 15
15 15 14 14 14 14 15 14 14 14 14 14 14 14 14 14 15 14 15 14 13 13 14 14 14 14 14 14 14 14 14 14 15 14 14 14 15 15 15 15 15 14 14 15 15 15 15 15 15 15 15 15 15 15 15 15 15 15 15 15 15 15 15
14 14 15 15 14 15 15 15 14 14 14 13 13 13 13 14 14 14 14 13 13 13 14 14 13 14 14 13 13 14 14 14 14 14 14 14 14 14 14 14 14 14 14 14 14 14 14 14 14 14 14 14 14 14 14 14 14 14 15 15 15 15 15
14 15 15 15 14 15 15 14 14 14 14 13 14 14 14 14 15 14 14 13 13 13 13 13 14 14 14 13 13 13 14 14 14 14 14 14 14 14 14 14 14 14 14 14 14 14 14 14 14 13 13 13 13 13 14 14 14 14 14 14 14 14 14
14 15 15 14 14 14 14 14 14 14 14 13 14 14 14 14 14 14 13 13 13 13 14 14 14 14 14 14 13 13 14 14 14 14 14 14 14 14 14 14 14 14 14 14 13 13 13 13 13 13 13 13 13 14 14 13 14 14 14 14 14 14 14
14 14 15 15 15 15 15 15 14 14 14 14 14 14 14 14 13 13 13 13 13 13 13 14 14 14 14 14 13 13 14 14 14 14 14 14 14 14 14 14 14 14 14 14 14 13 13 13 13 13 13 13 13 14 14 14 14 14 14 14 14 14 15
14 14 14 15 15 15 15 15 14 14 14 14 14 14 14 14 13 13 13 13 13 13 13 13 13 13 13 13 14 14 14 14 14 14 14 14 14 14 14 14 14 14 14 14 14 14 14 13 13 13 13 13 13 13 14 14 14 14 14 15 15 15 15
15 15 15 15 14 15 15 15 15 14 14 14 14 14 14 14 14 14 13 13 13 13 13 13 13 13 13 14 14 14 14 14 14 14 14 15 15 15 15 15 15 15 15 15 14 14 14 14 14 14 14 13 13 13 14 14 14 14 14 15 15 15 15
14 15 15 14 14 14 15 14 14 14 14 14 14 14 14 14 14 14 14 14 14 14 14 14 14 14 14 14 14 14 14 14 14 14 15 15 15 15 15 15 15 15 15 15 14 14 14 14 14 14 14 14 14 14 14 14 14 14 14 14 15 15 15
14 14 14 14 14 14 14 14 14 14 13 13 13 13 14 14 14 14 14 14 14 14 14 14 14 14 14 14 14 14 14 14 14 14 14 14 14 14 15 15 15 15 14 14 14 14 14 13 13 13 13 13 13 13 13 13 13 14 14 14 15 15 15
13 13 13 14 14 14 14 13 13 13 13 13 13 13 13 13 13 14 14 14 14 14 14 14 14 14 14 14 14 14 14 14 14 14 14 14 14 14 14 14 14 14 14 14 14 13 13 13 13 13 13 13 13 13 13 13 13 13 14 14 14 14 14

ECMWFFLT1_850_temp_123.txt.gz
Temp
23 25 26 26 26 25 25 24 24 24 24 23 23 23 23 23 23 22 22 21 20 20 20 20 20 19 20 20 19 20 19 19 19 19 19 19 19 20 20 20 20 20 20 21 20 20 20 20 20 20 20 20 20 20 21 21 21 20 20 20 21 20 20
23 25 27 26 26 25 25 25 24 24 24 23 23 23 23 23 23 22 22 21 20 20 20 20 20 20 20 20 20 20 20 19 19 19 20 20 19 20 20 20 20 20 20 20 20 20 20 20 20 20 20 20 20 20 21 20 21 21 20 20 21 20 20
22 24 26 26 26 25 25 25 24 24 24 24 23 23 23 23 23 22 22 21 20 20 20 20 20 20 20 20 20 20 20 20 20 20 20 20 20 20 20 20 20 20 20 20 20 20 20 20 20 20 20 20 20 20 20 20 20 20 20 20 21 20 20
22 23 25 26 26 25 25 25 24 24 24 24 23 23 23 23 22 22 22 21 21 20 20 20 20 20 20 20 20 20 20 20 20 20 20 20 20 20 20 20 20 20 21 20 20 20 21 20 20 20 20 20 20 20 20 20 20 20 20 20 20 20 20
22 21 24 26 26 25 25 25 24 24 24 24 24 23 23 22 22 22 21 21 21 21 21 21 21 21 20 20 20 20 20 20 20 20 20 20 21 21 21 21 21 21 21 21 21 20 20 20 20 20 20 21 20 20 20 20 20 20 20 20 20 19 20
21 20 22 25 25 25 25 25 24 24 24 24 24 23 23 23 23 22 22 22 21 21 21 21 21 21 21 21 21 20 20 20 20 20 20 20 21 21 21 21 21 21 21 21 21 21 20 20 20 20 20 20 20 20 20 20 20 20 20 20 20 20 20
22 20 22 24 25 25 25 25 25 24 24 24 24 24 23 23 23 23 23 22 22 22 22 22 22 22 21 21 21 21 21 21 20 20 20 20 21 21 21 21 21 21 21 21 21 21 20 20 20 20 20 20 20 21 20 20 20 20 20 20 20 20 20
22 21 22 23 24 25 24 25 25 24 24 24 24 24 23 23 23 23 23 22 22 22 22 22 22 22 21 21 21 21 21 21 21 21 21 21 21 21 21 21 21 21 21 21 21 21 21 21 20 20 20 20 21 21 20 20 20 20 20 20 20 20 20
22 21 22 23 24 25 24 24 25 24 24 24 24 24 23 23 23 23 23 23 22 22 22 22 22 22 21 21 21 21 21 21 21 21 21 21 21 21 21 21 21 21 21 21 21 21 21 21 21 20 20 20 20 20 20 20 19 20 20 20 20 20 20
21 21 22 22 23 24 23 23 24 24 24 24 24 24 23 23 23 23 23 22 22 22 22 22 22 21 21 21 21 21 21 21 21 21 21 21 22 22 22 22 22 21 21 21 22 22 21 21 21 21 20 20 20 20 20 20 19 19 20 20 20 20 20
21 20 21 21 22 23 23 23 23 24 24 24 23 23 23 23 23 23 22 22 22 22 22 22 22 21 21 21 21 21 21 21 21 21 21 21 22 22 22 22 22 22 22 21 22 22 22 21 21 20 20 20 20 20 20 20 19 19 20 20 20 20 20
20 20 20 20 21 22 23 23 23 23 23 23 23 23 23 23 23 22 22 22 22 22 22 21 21 21 21 20 21 21 21 21 21 21 21 21 21 22 22 22 22 22 22 22 21 22 22 21 21 20 20 20 20 20 20 20 20 19 19 20 20 20 20
20 19 19 20 21 21 22 23 23 23 23 23 23 22 22 22 22 22 22 22 22 22 22 21 21 21 21 21 21 21 21 21 21 21 21 21 21 21 21 22 22 22 22 22 22 22 22 22 21 21 20 20 20 20 20 20 20 20 20 20 20 20 20
19 19 19 19 20 21 22 22 23 23 23 22 22 22 22 22 22 22 22 22 22 21 21 21 21 21 22 22 22 21 21 21 21 21 21 21 21 20 21 21 22 22 22 22 22 22 21 22 22 21 21 20 20 20 20 20 20 20 20 20 20 20 20
19 19 19 19 20 20 21 21 22 22 22 22 22 22 22 22 21 21 21 21 21 21 21 21 21 21 21 22 22 21 20 20 21 21 21 21 20 20 20 20 21 21 21 22 22 22 22 21 22 22 21 21 21 21 20 20 20 20 20 20 20 20 20
19 18 18 19 19 19 19 20 21 22 22 21 21 21 21 21 21 21 21 21 21 21 21 21 21 21 21 21 21 21 21 20 20 20 20 20 20 20 20 20 20 20 20 21 21 21 21 21 21 22 21 21 21 21 20 20 20 20 20 20 20 20 20
19 18 18 18 18 18 19 20 20 21 21 21 21 21 21 21 21 21 20 21 21 21 21 21 21 21 21 20 21 21 20 20 20 20 20 20 20 21 21 21 21 20 20 20 20 20 20 21 21 21 21 21 20 20 20 20 20 20 20 20 20 20 20
18 18 18 18 17 18 19 19 19 20 21 21 21 21 20 20 20 20 20 20 21 20 21 21 21 21 21 20 20 20 20 21 21 21 21 21 21 21 21 21 21 21 20 20 20 20 20 20 20 20 20 20 20 19 19 20 20 20 20 20 20 20 20
18 19 18 18 17 17 18 18 18 19 19 20 20 20 20 20 20 20 20 20 20 20 20 21 21 21 21 20 20 19 20 21 21 21 21 21 21 20 20 20 20 20 21 20 20 20 19 20 20 20 20 20 20 20 20 20 19 20 20 20 20 20 20
18 19 20 19 18 18 18 18 18 18 18 19 19 19 19 20 20 20 20 20 20 20 20 20 20 20 20 20 20 20 19 20 21 21 20 20 20 20 20 20 20 20 20 20 20 19 19 19 19 19 20 20 20 20 20 20 19 20 20 20 20 20 20
16 18 19 19 18 19 19 18 18 18 18 18 19 19 19 19 19 19 19 19 20 20 20 20 20 20 20 20 20 19 19 20 21 20 20 20 19 19 20 20 20 20 19 20 19 19 18 19 19 19 19 19 19 19 20 20 19 19 19 19 19 19 19
15 16 16 17 17 18 19 18 18 18 18 18 18 18 19 19 19 19 19 19 19 19 19 19 19 19 19 19 19 19 19 19 20 19 19 19 19 19 20 20 19 19 19 19 18 18 19 19 19 18 19 19 18 19 19 19 19 19 19 19 19 19 19
15 15 15 16 16 17 18 18 17 17 18 17 17 17 18 18 18 18 18 18 19 18 19 19 19 19 19 19 19 19 19 19 19 18 18 18 18 19 19 19 19 19 18 18 18 18 18 18 18 18 19 19 18 18 18 18 19 19 19 19 19 19 19
15 15 15 15 15 16 17 16 16 17 18 17 17 17 17 17 18 18 18 18 18 18 18 18 19 19 19 19 18 18 18 18 18 18 18 18 18 18 18 18 18 18 18 18 18 18 18 18 18 18 19 19 18 18 18 19 19 19 19 19 19 19 18
14 14 14 15 15 16 17 17 17 17 17 17 17 17 17 17 17 17 18 18 18 18 18 18 18 18 18 18 18 18 18 18 18 17 18 18 18 17 18 18 18 18 18 18 18 18 18 18 18 18 18 18 18 18 18 18 18 18 18 18 18 18 18
14 14 14 14 15 16 18 18 18 17 17 17 17 17 17 17 17 17 17 17 17 18 18 18 18 18 18 18 17 17 17 17 17 17 17 17 17 17 17 17 17 17 17 17 17 17 18 18 17 17 17 17 17 18 18 17 17 17 17 17 17 17 17
14 14 14 14 14 15 17 17 17 17 16 16 16 16 16 17 17 17 17 17 17 18 18 18 19 19 19 18 17 17 17 16 16 16 16 16 16 16 16 16 16 17 17 17 16 17 17 17 17 17 16 16 16 17 17 16 16 16 16 16 16 16 17
14 14 14 14 14 14 15 15 15 15 15 15 15 15 16 17 17 16 16 17 17 17 17 17 17 17 17 17 17 17 17 16 16 16 16 16 16 16 16 16 16 16 16 15 16 16 16 16 16 16 16 16 16 16 16 16 16 16 16 16 16 16 16
14 14 14 14 14 14 14 14 14 14 14 14 14 15 15 16 16 16 16 16 15 15 15 15 15 15 15 15 15 16 16 15 16 16 15 15 15 15 15 15 15 15 15 15 15 15 15 15 15 15 15 15 15 15 15 15 15 15 16 16 16 16 16
14 14 13 13 13 13 14 14 14 14 14 14 14 15 15 16 15 15 15 14 14 14 14 15 15 15 15 15 15 15 15 15 15 15 15 15 15 15 15 15 15 15 15 15 15 15 15 15 15 15 15 14 14 14 14 15 15 15 15 15 15 16 16
15 14 13 13 13 13 14 14 14 14 14 14 14 14 14 14 14 14 14 14 14 14 14 14 15 15 15 15 15 15 15 15 15 14 14 14 14 14 15 15 15 15 14 14 14 15 15 16 15 15 14 14 14 15 15 15 15 15 15 15 16 16 16
14 14 14 13 13 13 13 14 14 13 13 13 13 13 13 13 14 14 14 14 14 15 15 15 15 15 15 14 14 14 14 14 14 14 14 14 14 15 15 15 14 14 14 14 14 14 15 15 15 14 14 14 15 15 15 15 14 14 14 15 16 16 17
14 14 14 14 13 13 13 13 13 13 13 13 13 13 13 14 14 14 14 14 15 15 15 16 16 16 15 15 15 15 15 14 14 14 14 14 14 15 15 14 14 14 14 14 14 14 14 15 15 14 13 13 14 14 14 13 13 13 14 15 16 16 17
14 14 14 13 13 13 13 13 13 13 13 13 13 13 13 13 13 13 13 14 14 15 15 15 15 15 15 15 15 16 16 15 15 15 14 14 14 14 15 15 14 14 14 14 14 14 14 14 14 14 13 13 14 14 13 13 14 14 15 16 16 17 17
13 13 13 13 13 13 13 13 13 13 13 13 13 13 13 13 13 13 13 13 13 14 14 14 15 15 15 15 15 15 15 15 16 16 15 15 15 15 16 16 16 15 15 15 15 15 15 15 15 14 14 14 14 14 14 14 15 15 15 16 16 16 17
13 13 13 13 13 13 13 12 12 13 13 13 13 13 13 13 13 13 13 13 13 13 13 14 14 14 14 14 14 14 14 14 15 15 15 15 15 16 16 16 16 16 15 15 15 15 15 15 15 15 15 15 15 15 15 15 15 15 16 16 16 16 16
13 13 13 13 13 13 13 13 13 13 13 13 13 13 13 13 13 13 13 13 13 13 14 14 14 14 14 14 14 14 14 15 15 15 15 15 15 15 15 15 15 15 15 15 15 15 15 15 15 15 15 15 15 15 15 15 15 15 15 16 16 16 16
13 13 13 13 13 13 13 13 13 13 13 13 13 13 13 13 13 13 13 13 13 13 14 14 14 14 14 14 14 14 14 14 14 14 14 14 14 14 14 14 14 14 14 14 14 15 15 15 15 15 15 14 15 15 15 15 15 15 15 15 15 15 15